SJX789A RJTT-OJAI

Flight info

Callsign SJX789A
Flight time 12h 14m
Altitude 34000
Route OPPAR JYOGA Y566 LAXAS Y56 TOHME Y54 KOHWA Y38 SAPRA G585 SEL G597 AGAVO/K0924S1040 G597 DONVO A326 OBDIS/K0913S1100 A326 UNSEK DCT LADIX B339 HUR W69 DKO W66 GOVSA/K0898S1160 W66 NUKTI B215 IBANO W187 TUSLI W112 PURPA/N0488F380 G325 ZB/N0489F400 G325 PG T385 TAPDO A454 PASOV B540 KUPMA/N0481F240 B540 MIVEK/N0508F340 P574 RUKOR N571 TUDIS/N0489F400 N571 ALPOB L768 OVANO R652 KIPAS
Aircraft A359/H-SDE2E3GHIJ3J4J5LM1ORWXY/LB1D1

Departure

Time 2026-05-07 01:53
Airport Tokyo Haneda International Airport (RJTT)

Arrival

Time 2026-05-07 14:07
Airport Queen Alia International Airport (OJAI)
Time Latitude Longitude Altitude Speed Heading
2026-05-07 01:12 35.55010 139.78164 31 ft 0 kts 58°
2026-05-07 01:47 35.54999 139.78143 30 ft 4 kts 60°
2026-05-07 01:47 35.54986 139.78114 30 ft 4 kts 59°
2026-05-07 01:47 35.54973 139.78086 28 ft 4 kts 59°
2026-05-07 01:48 35.54960 139.78059 29 ft 3 kts 59°
2026-05-07 01:48 35.54946 139.78038 29 ft 4 kts 17°
2026-05-07 01:48 35.54928 139.78045 29 ft 4 kts 319°
2026-05-07 01:48 35.54912 139.78060 28 ft 0 kts 336°
2026-05-07 01:51 35.56564 139.78673 29 ft 0 kts 150°
2026-05-07 01:52 35.56559 139.78677 30 ft 7 kts 150°
2026-05-07 01:53 35.56300 139.78864 30 ft 81 kts 149°
2026-05-07 01:53 35.55606 139.79360 30 ft 148 kts 149°
2026-05-07 01:53 35.54547 139.80111 162 ft 195 kts 150°
2026-05-07 01:53 35.53312 139.80986 716 ft 216 kts 150°
2026-05-07 01:54 35.51933 139.81968 1307 ft 237 kts 152°
2026-05-07 01:54 35.50588 139.82927 1881 ft 238 kts 152°
2026-05-07 01:54 35.49177 139.83940 2484 ft 238 kts 152°
2026-05-07 01:54 35.47748 139.84971 3096 ft 238 kts 152°
2026-05-07 01:55 35.46535 139.85845 3550 ft 240 kts 153°
2026-05-07 01:55 35.45082 139.86855 3848 ft 252 kts 153°
2026-05-07 01:55 35.43489 139.87765 4335 ft 254 kts 167°
2026-05-07 01:55 35.41756 139.87877 4855 ft 251 kts 194°
2026-05-07 01:56 35.40187 139.86993 5401 ft 250 kts 219°
2026-05-07 01:56 35.39074 139.85364 5988 ft 252 kts 238°
2026-05-07 01:56 35.38196 139.83491 6572 ft 254 kts 239°
2026-05-07 01:56 35.37685 139.82343 6889 ft 256 kts 242°
2026-05-07 01:57 35.37102 139.79659 7606 ft 262 kts 268°
2026-05-07 01:57 35.37488 139.77468 8198 ft 270 kts 291°
2026-05-07 01:57 35.38638 139.75615 8768 ft 281 kts 316°
2026-05-07 01:57 35.40256 139.74229 9357 ft 286 kts 323°
2026-05-07 01:58 35.41882 139.72824 9928 ft 285 kts 313°
2026-05-07 01:58 35.42987 139.71019 10296 ft 284 kts 290°
2026-05-07 01:58 35.43673 139.68710 10572 ft 293 kts 283°
2026-05-07 01:58 35.44241 139.66458 10836 ft 305 kts 283°
2026-05-07 01:59 35.44876 139.63962 11126 ft 316 kts 284°
2026-05-07 01:59 35.45549 139.61346 11408 ft 328 kts 284°
2026-05-07 01:59 35.46249 139.58641 11706 ft 339 kts 284°
2026-05-07 01:59 35.46975 139.55843 11982 ft 349 kts 284°
2026-05-07 02:00 35.47722 139.52970 12236 ft 359 kts 284°
2026-05-07 02:00 35.48379 139.49982 12477 ft 366 kts 277°
2026-05-07 02:00 35.48605 139.47239 12714 ft 370 kts 270°
2026-05-07 02:00 35.48687 139.45146 12979 ft 372 kts 270°
2026-05-07 02:01 35.48807 139.41963 13414 ft 375 kts 270°
2026-05-07 02:01 35.48934 139.38745 13830 ft 379 kts 270°
2026-05-07 02:01 35.49063 139.35509 14192 ft 381 kts 270°
2026-05-07 02:01 35.49229 139.31376 14668 ft 384 kts 270°
2026-05-07 02:02 35.49361 139.28094 15046 ft 387 kts 270°
2026-05-07 02:02 35.49449 139.25865 15276 ft 388 kts 270°
2026-05-07 02:02 35.49578 139.22588 15595 ft 390 kts 270°
2026-05-07 02:02 35.49753 139.18139 16111 ft 390 kts 270°
2026-05-07 02:03 35.49788 139.15924 16251 ft 393 kts 267°
2026-05-07 02:03 35.49719 139.12559 16559 ft 395 kts 265°
2026-05-07 02:03 35.49568 139.09193 16976 ft 395 kts 264°
2026-05-07 02:03 35.49505 139.08015 17112 ft 395 kts 264°
2026-05-07 02:04 35.49314 139.04635 17401 ft 400 kts 263°
2026-05-07 02:04 35.49130 139.01437 17678 ft 402 kts 263°
2026-05-07 02:04 35.48942 138.98045 18047 ft 404 kts 264°
2026-05-07 02:04 35.48796 138.95271 18327 ft 405 kts 264°
2026-05-07 02:05 35.48707 138.93552 18482 ft 406 kts 264°
2026-05-07 02:05 35.48589 138.91279 18646 ft 409 kts 264°
2026-05-07 02:05 35.48535 138.90232 18710 ft 410 kts 264°
2026-05-07 02:06 35.48371 138.86963 19031 ft 410 kts 264°
2026-05-07 02:06 35.48298 138.85493 19154 ft 412 kts 264°
2026-05-07 02:06 35.48183 138.83191 19237 ft 418 kts 265°
2026-05-07 02:06 35.48005 138.79651 19368 ft 423 kts 265°
2026-05-07 02:07 35.47836 138.76278 19636 ft 424 kts 265°
2026-05-07 02:07 35.47520 138.70067 20165 ft 426 kts 265°
2026-05-07 02:08 35.47469 138.69069 20241 ft 427 kts 265°
2026-05-07 02:08 35.47284 138.65433 20531 ft 429 kts 265°
2026-05-07 02:08 35.47099 138.61814 20797 ft 431 kts 265°
2026-05-07 02:08 35.46904 138.58133 21090 ft 433 kts 265°
2026-05-07 02:09 35.46771 138.55643 21306 ft 434 kts 265°
2026-05-07 02:09 35.46707 138.54456 21407 ft 435 kts 265°
2026-05-07 02:09 35.46610 138.52651 21539 ft 436 kts 265°
2026-05-07 02:10 35.46408 138.48936 21846 ft 438 kts 265°
2026-05-07 02:10 35.46207 138.45191 22168 ft 440 kts 265°
2026-05-07 02:10 35.46005 138.41444 22406 ft 442 kts 265°
2026-05-07 02:10 35.45800 138.37666 22666 ft 445 kts 265°
2026-05-07 02:11 35.45592 138.33872 22978 ft 447 kts 265°
2026-05-07 02:11 35.45383 138.30117 23264 ft 447 kts 265°
2026-05-07 02:11 35.45170 138.26312 23604 ft 447 kts 265°
2026-05-07 02:11 35.44957 138.22462 23836 ft 449 kts 265°
2026-05-07 02:12 35.44745 138.18628 24077 ft 451 kts 265°
2026-05-07 02:12 35.44533 138.14786 24356 ft 451 kts 265°
2026-05-07 02:12 35.44321 138.10997 24663 ft 452 kts 265°
2026-05-07 02:12 35.44204 138.08915 24857 ft 452 kts 265°
2026-05-07 02:13 35.44104 138.07144 25009 ft 452 kts 265°
2026-05-07 02:13 35.43882 138.03275 25225 ft 456 kts 265°
2026-05-07 02:13 35.43656 137.99364 25402 ft 462 kts 265°
2026-05-07 02:13 35.43428 137.95439 25647 ft 464 kts 265°
2026-05-07 02:14 35.43196 137.91477 25986 ft 465 kts 265°
2026-05-07 02:14 35.42964 137.87513 26290 ft 467 kts 265°
2026-05-07 02:14 35.42732 137.83543 26601 ft 469 kts 265°
2026-05-07 02:14 35.42496 137.79550 26934 ft 470 kts 265°
2026-05-07 02:15 35.42253 137.75548 27261 ft 470 kts 264°
2026-05-07 02:15 35.41976 137.71597 27505 ft 473 kts 264°
2026-05-07 02:15 35.41669 137.67584 27750 ft 475 kts 263°
2026-05-07 02:15 35.41350 137.63549 28022 ft 477 kts 263°
2026-05-07 02:16 35.41030 137.59490 28294 ft 478 kts 263°
2026-05-07 02:16 35.40712 137.55429 28559 ft 480 kts 263°
2026-05-07 02:16 35.40328 137.51357 28808 ft 481 kts 261°
2026-05-07 02:16 35.39856 137.47341 29061 ft 483 kts 260°
2026-05-07 02:17 35.39335 137.43231 29376 ft 483 kts 260°
2026-05-07 02:17 35.38822 137.39227 29733 ft 482 kts 260°
2026-05-07 02:17 35.38310 137.35164 30038 ft 482 kts 260°
2026-05-07 02:17 35.37810 137.31106 30276 ft 482 kts 261°
2026-05-07 02:18 35.37320 137.27057 30576 ft 480 kts 261°
2026-05-07 02:18 35.36835 137.23009 30939 ft 477 kts 261°
2026-05-07 02:18 35.36359 137.19021 31373 ft 473 kts 261°
2026-05-07 02:18 35.35881 137.15028 31670 ft 472 kts 261°
2026-05-07 02:19 35.35401 137.11053 31936 ft 471 kts 261°
2026-05-07 02:19 35.34927 137.07148 32215 ft 470 kts 261°
2026-05-07 02:19 35.34449 137.03197 32494 ft 468 kts 261°
2026-05-07 02:19 35.33971 136.99253 32791 ft 467 kts 261°
2026-05-07 02:20 35.33494 136.95328 33044 ft 466 kts 261°
2026-05-07 02:20 35.33017 136.91423 33320 ft 464 kts 261°
2026-05-07 02:20 35.32539 136.87517 33570 ft 463 kts 261°
2026-05-07 02:20 35.32062 136.83632 33817 ft 462 kts 261°
2026-05-07 02:21 35.31648 136.80265 33976 ft 462 kts 261°
2026-05-07 02:21 35.31167 136.76368 34002 ft 465 kts 261°
2026-05-07 02:21 35.30245 136.68485 34004 ft 468 kts 265°
2026-05-07 02:22 35.30488 136.60546 34006 ft 466 kts 276°
2026-05-07 02:22 35.31405 136.52712 34002 ft 465 kts 278°
2026-05-07 02:23 35.32414 136.44903 34009 ft 464 kts 278°
2026-05-07 02:23 35.33410 136.37147 34011 ft 464 kts 278°
2026-05-07 02:24 35.34381 136.29331 34017 ft 463 kts 277°
2026-05-07 02:24 35.35336 136.21549 34012 ft 461 kts 277°
2026-05-07 02:25 35.36285 136.13775 34010 ft 462 kts 277°
2026-05-07 02:25 35.37227 136.06035 34014 ft 463 kts 277°
2026-05-07 02:26 35.38171 135.98241 34011 ft 462 kts 277°
2026-05-07 02:26 35.39107 135.90485 34008 ft 460 kts 277°
2026-05-07 02:27 35.40035 135.82726 34010 ft 460 kts 277°
2026-05-07 02:27 35.40953 135.75023 34007 ft 460 kts 277°
2026-05-07 02:28 35.41873 135.67257 34015 ft 460 kts 276°
2026-05-07 02:28 35.42784 135.59526 34015 ft 458 kts 276°
2026-05-07 02:29 35.43687 135.51805 34013 ft 458 kts 276°
2026-05-07 02:29 35.44581 135.44125 34014 ft 458 kts 276°
2026-05-07 02:30 35.45477 135.36389 34017 ft 457 kts 276°
2026-05-07 02:30 35.46366 135.28676 34019 ft 457 kts 276°
2026-05-07 02:31 35.47250 135.20958 34006 ft 457 kts 276°
2026-05-07 02:31 35.48029 135.13277 34011 ft 456 kts 271°
2026-05-07 02:32 35.48351 135.05503 34007 ft 456 kts 271°
2026-05-07 02:32 35.48591 134.97740 34013 ft 455 kts 270°
2026-05-07 02:33 35.48813 134.90079 34022 ft 455 kts 270°
2026-05-07 02:33 35.49040 134.82306 34018 ft 455 kts 270°
2026-05-07 02:34 35.49266 134.74548 34017 ft 455 kts 270°
2026-05-07 02:34 35.49489 134.66843 34019 ft 455 kts 270°
2026-05-07 02:35 35.49706 134.59093 34017 ft 454 kts 270°
2026-05-07 02:35 35.49916 134.51351 34009 ft 454 kts 270°
2026-05-07 02:36 35.50121 134.43604 34000 ft 454 kts 270°
2026-05-07 02:36 35.50322 134.35919 33997 ft 453 kts 270°
2026-05-07 02:37 35.50516 134.28184 33997 ft 454 kts 270°
2026-05-07 02:37 35.50709 134.20448 33998 ft 453 kts 269°
2026-05-07 02:38 35.50900 134.12724 33993 ft 453 kts 269°
2026-05-07 02:38 35.51081 134.05061 33995 ft 453 kts 269°
2026-05-07 02:39 35.51253 133.97327 33999 ft 453 kts 269°
2026-05-07 02:39 35.51422 133.89589 33998 ft 453 kts 269°
2026-05-07 02:40 35.51587 133.81861 34006 ft 453 kts 269°
2026-05-07 02:40 35.51749 133.74134 33999 ft 452 kts 269°
2026-05-07 02:41 35.51904 133.66475 33995 ft 452 kts 268°
2026-05-07 02:41 35.52068 133.58758 33996 ft 453 kts 269°
2026-05-07 02:42 35.52249 133.51029 33995 ft 453 kts 269°
2026-05-07 02:42 35.52426 133.43317 33994 ft 453 kts 269°
2026-05-07 02:43 35.52594 133.35637 33994 ft 453 kts 269°
2026-05-07 02:43 35.52761 133.27897 33992 ft 454 kts 268°
2026-05-07 02:44 35.52912 133.20146 33991 ft 454 kts 268°
2026-05-07 02:44 35.53060 133.12386 33994 ft 455 kts 268°
2026-05-07 02:45 35.53712 133.04684 33992 ft 458 kts 275°
2026-05-07 02:45 35.54656 132.96932 33994 ft 459 kts 276°
2026-05-07 02:46 35.55639 132.89178 33993 ft 460 kts 276°
2026-05-07 02:46 35.56615 132.81413 33992 ft 460 kts 276°
2026-05-07 02:47 35.57570 132.73704 33994 ft 460 kts 276°
2026-05-07 02:47 35.58535 132.65940 33986 ft 460 kts 276°
2026-05-07 02:48 35.59554 132.58175 33996 ft 460 kts 276°
2026-05-07 02:48 35.60582 132.50393 33991 ft 461 kts 276°
2026-05-07 02:49 35.61590 132.42674 33994 ft 461 kts 276°
2026-05-07 02:49 35.62595 132.34900 33991 ft 460 kts 276°
2026-05-07 02:50 35.63593 132.27131 33989 ft 459 kts 276°
2026-05-07 02:50 35.64583 132.19378 34009 ft 459 kts 276°
2026-05-07 02:51 35.65562 132.11680 33990 ft 458 kts 276°
2026-05-07 02:51 35.66541 132.03936 33982 ft 458 kts 276°
2026-05-07 02:52 35.67516 131.96189 33988 ft 459 kts 276°
2026-05-07 02:52 35.68488 131.88423 33989 ft 459 kts 276°
2026-05-07 02:53 35.69449 131.80699 33984 ft 459 kts 276°
2026-05-07 02:53 35.70411 131.72935 33987 ft 458 kts 276°
2026-05-07 02:54 35.71365 131.65188 33986 ft 457 kts 276°
2026-05-07 02:54 35.72312 131.57451 33985 ft 457 kts 276°
2026-05-07 02:55 35.73248 131.49767 33988 ft 456 kts 276°
2026-05-07 02:55 35.74184 131.42041 33980 ft 456 kts 276°
2026-05-07 02:56 35.75113 131.34320 34000 ft 457 kts 275°
2026-05-07 02:56 35.76040 131.26593 33987 ft 456 kts 275°
2026-05-07 02:57 35.76960 131.18867 33981 ft 456 kts 275°
2026-05-07 02:57 35.77868 131.11197 33969 ft 456 kts 275°
2026-05-07 02:58 35.78778 131.03476 33968 ft 455 kts 275°
2026-05-07 02:58 35.79681 130.95765 33966 ft 455 kts 275°
2026-05-07 02:59 35.80581 130.88034 33970 ft 455 kts 275°
2026-05-07 02:59 35.81468 130.80368 33946 ft 455 kts 275°
2026-05-07 03:00 35.82359 130.72638 33979 ft 455 kts 275°
2026-05-07 03:00 35.83303 130.64930 33962 ft 456 kts 276°
2026-05-07 03:01 35.84303 130.57220 33964 ft 456 kts 276°
2026-05-07 03:01 35.85290 130.49548 33960 ft 456 kts 276°
2026-05-07 03:02 35.86265 130.41829 33955 ft 455 kts 276°
2026-05-07 03:02 35.87230 130.34121 33955 ft 455 kts 276°
2026-05-07 03:03 35.88190 130.26402 33952 ft 455 kts 276°
2026-05-07 03:03 35.89138 130.18749 33949 ft 454 kts 276°
2026-05-07 03:04 35.90086 130.11053 33930 ft 454 kts 276°
2026-05-07 03:04 35.91031 130.03342 33944 ft 455 kts 276°
2026-05-07 03:05 35.91971 129.95626 33944 ft 454 kts 276°
2026-05-07 03:05 35.92898 129.87978 33938 ft 454 kts 276°
2026-05-07 03:06 35.93828 129.80283 33958 ft 454 kts 276°
2026-05-07 03:06 35.94755 129.72577 33929 ft 452 kts 276°
2026-05-07 03:07 35.95667 129.64898 33928 ft 452 kts 276°
2026-05-07 03:07 35.96567 129.57281 33934 ft 452 kts 276°
2026-05-07 03:08 35.97792 129.49661 33925 ft 455 kts 285°
2026-05-07 03:08 36.00564 129.42597 33928 ft 462 kts 299°
2026-05-07 03:09 36.04231 129.36044 33921 ft 465 kts 301°
2026-05-07 03:09 36.07993 129.29611 33918 ft 464 kts 301°
2026-05-07 03:10 36.11767 129.23131 33918 ft 464 kts 301°
2026-05-07 03:10 36.15517 129.16629 33918 ft 464 kts 300°
2026-05-07 03:11 36.19249 129.10122 33925 ft 464 kts 300°
2026-05-07 03:11 36.22948 129.03661 33919 ft 463 kts 300°
2026-05-07 03:12 36.26667 128.97152 33917 ft 463 kts 300°
2026-05-07 03:12 36.30380 128.90642 33917 ft 463 kts 300°
2026-05-07 03:13 36.34096 128.84118 33912 ft 463 kts 300°
2026-05-07 03:13 36.37789 128.77628 33926 ft 463 kts 300°
2026-05-07 03:14 36.41496 128.71086 33914 ft 463 kts 300°
2026-05-07 03:15 36.47052 128.61265 33919 ft 463 kts 300°
2026-05-07 03:15 36.50748 128.54719 33918 ft 463 kts 300°
2026-05-07 03:16 36.54419 128.48210 33925 ft 462 kts 299°
2026-05-07 03:16 36.58094 128.41680 33912 ft 460 kts 299°
2026-05-07 03:17 36.61759 128.35143 33916 ft 460 kts 299°
2026-05-07 03:17 36.65433 128.28616 33917 ft 461 kts 300°
2026-05-07 03:18 36.69123 128.22150 33916 ft 461 kts 300°
2026-05-07 03:18 36.72833 128.15648 33913 ft 460 kts 299°
2026-05-07 03:19 36.76535 128.09149 33926 ft 460 kts 299°
2026-05-07 03:19 36.80221 128.02636 33918 ft 459 kts 299°
2026-05-07 03:20 36.83898 127.96128 33922 ft 459 kts 299°
2026-05-07 03:20 36.87552 127.89662 33922 ft 458 kts 299°
2026-05-07 03:21 36.91214 127.83148 33919 ft 458 kts 299°
2026-05-07 03:21 36.94876 127.76632 33915 ft 458 kts 299°
2026-05-07 03:22 36.98537 127.70118 33929 ft 458 kts 298°
2026-05-07 03:22 37.02159 127.63659 33909 ft 456 kts 298°
2026-05-07 03:23 37.05796 127.57167 33913 ft 456 kts 299°
2026-05-07 03:23 37.09422 127.50655 33915 ft 456 kts 298°
2026-05-07 03:24 37.13048 127.44140 33925 ft 453 kts 298°
2026-05-07 03:24 37.16639 127.37701 33930 ft 449 kts 298°
2026-05-07 03:25 37.20174 127.31315 33929 ft 449 kts 298°
2026-05-07 03:25 37.23733 127.24876 33943 ft 449 kts 298°
2026-05-07 03:26 37.27293 127.18435 33963 ft 447 kts 298°
2026-05-07 03:26 37.30803 127.12076 33965 ft 446 kts 298°
2026-05-07 03:27 37.34335 127.05676 33969 ft 446 kts 297°
2026-05-07 03:27 37.37831 126.99257 33964 ft 443 kts 295°
2026-05-07 03:28 37.40401 126.92363 33962 ft 429 kts 282°
2026-05-07 03:28 37.41331 126.85069 33959 ft 421 kts 269°
2026-05-07 03:29 37.41379 126.77759 33963 ft 421 kts 267°
2026-05-07 03:29 37.41311 126.70403 33971 ft 419 kts 266°
2026-05-07 03:30 37.41247 126.63090 33945 ft 418 kts 267°
2026-05-07 03:30 37.41197 126.55760 33985 ft 420 kts 267°
2026-05-07 03:30 37.41175 126.52104 34230 ft 417 kts 267°
2026-05-07 03:31 37.41151 126.48511 34547 ft 414 kts 266°
2026-05-07 03:31 37.41127 126.44865 34865 ft 410 kts 266°
2026-05-07 03:31 37.41105 126.41329 35055 ft 409 kts 266°
2026-05-07 03:31 37.41081 126.37756 35208 ft 409 kts 266°
2026-05-07 03:32 37.41055 126.34189 35376 ft 408 kts 266°
2026-05-07 03:32 37.41029 126.30617 35531 ft 408 kts 266°
2026-05-07 03:32 37.41000 126.27055 35693 ft 407 kts 266°
2026-05-07 03:32 37.40971 126.23489 35866 ft 406 kts 266°
2026-05-07 03:33 37.40941 126.19975 35953 ft 408 kts 266°
2026-05-07 03:33 37.40875 126.12824 35953 ft 410 kts 266°
2026-05-07 03:34 37.40806 126.05646 35945 ft 412 kts 266°
2026-05-07 03:34 37.40732 125.98425 35941 ft 413 kts 266°
2026-05-07 03:35 37.40654 125.91198 35933 ft 413 kts 266°
2026-05-07 03:35 37.40572 125.83978 35934 ft 413 kts 266°
2026-05-07 03:36 37.40486 125.76795 35933 ft 413 kts 266°
2026-05-07 03:36 37.40395 125.69583 35924 ft 411 kts 266°
2026-05-07 03:37 37.40305 125.62431 35925 ft 410 kts 266°
2026-05-07 03:37 37.40207 125.55266 35923 ft 409 kts 266°
2026-05-07 03:38 37.40099 125.48154 35931 ft 409 kts 266°
2026-05-07 03:38 37.39990 125.41019 35922 ft 408 kts 266°
2026-05-07 03:39 37.39877 125.33886 35924 ft 407 kts 266°
2026-05-07 03:39 37.39761 125.26758 35925 ft 407 kts 266°
2026-05-07 03:40 37.39643 125.19691 35922 ft 406 kts 266°
2026-05-07 03:40 37.39520 125.12597 35924 ft 406 kts 266°
2026-05-07 03:41 37.39393 125.05499 35923 ft 406 kts 266°
2026-05-07 03:41 37.39261 124.98405 35938 ft 407 kts 266°
2026-05-07 03:42 37.39123 124.91277 35924 ft 408 kts 265°
2026-05-07 03:42 37.38314 124.84315 35925 ft 405 kts 254°
2026-05-07 03:43 37.36114 124.77806 35932 ft 407 kts 242°
2026-05-07 03:43 37.33184 124.71720 35937 ft 408 kts 241°
2026-05-07 03:44 37.30168 124.65736 35922 ft 408 kts 240°
2026-05-07 03:44 37.27130 124.59711 35936 ft 409 kts 240°
2026-05-07 03:45 37.24103 124.53655 35933 ft 409 kts 240°
2026-05-07 03:45 37.21087 124.47602 35950 ft 409 kts 242°
2026-05-07 03:46 37.18739 124.41171 35919 ft 404 kts 253°
2026-05-07 03:46 37.17770 124.34218 35941 ft 408 kts 264°
2026-05-07 03:47 37.17494 124.27150 35944 ft 409 kts 266°
2026-05-07 03:47 37.17306 124.20025 35957 ft 409 kts 266°
2026-05-07 03:48 37.17101 124.12927 35946 ft 407 kts 266°
2026-05-07 03:48 37.16817 124.05849 35949 ft 406 kts 262°
2026-05-07 03:49 37.15573 123.99031 35956 ft 406 kts 251°
2026-05-07 03:49 37.12976 123.92729 35957 ft 409 kts 242°
2026-05-07 03:50 37.09901 123.86720 35958 ft 410 kts 240°
2026-05-07 03:50 37.06767 123.80751 35958 ft 410 kts 240°
2026-05-07 03:51 37.03667 123.74814 35963 ft 410 kts 240°
2026-05-07 03:51 37.00556 123.68823 35975 ft 411 kts 240°
2026-05-07 03:52 36.97440 123.62821 35965 ft 412 kts 241°
2026-05-07 03:52 36.94315 123.56815 35966 ft 412 kts 241°
2026-05-07 03:53 36.91212 123.50861 35966 ft 411 kts 240°
2026-05-07 03:53 36.88113 123.44853 35975 ft 411 kts 243°
2026-05-07 03:54 36.85836 123.38355 35963 ft 408 kts 255°
2026-05-07 03:54 36.85026 123.31367 35978 ft 409 kts 268°
2026-05-07 03:55 36.85811 123.24310 35987 ft 415 kts 281°
2026-05-07 03:55 36.87419 123.17427 35983 ft 416 kts 282°
2026-05-07 03:56 36.89132 123.10527 35975 ft 414 kts 283°
2026-05-07 03:56 36.90811 123.03678 35979 ft 412 kts 282°
2026-05-07 03:57 36.92460 122.96822 35983 ft 412 kts 282°
2026-05-07 03:57 36.94087 122.90008 35985 ft 412 kts 282°
2026-05-07 03:58 36.95715 122.83169 35991 ft 409 kts 282°
2026-05-07 03:58 36.97335 122.76352 35990 ft 408 kts 282°
2026-05-07 03:59 36.98949 122.69540 35991 ft 408 kts 282°
2026-05-07 03:59 37.00546 122.62778 35990 ft 408 kts 282°
2026-05-07 04:00 37.02149 122.55978 35994 ft 406 kts 282°
2026-05-07 04:00 37.03742 122.49198 36001 ft 406 kts 282°
2026-05-07 04:01 37.05327 122.42432 36000 ft 406 kts 282°
2026-05-07 04:01 37.07405 122.35814 36001 ft 414 kts 292°
2026-05-07 04:02 37.10828 122.29956 36001 ft 429 kts 306°
2026-05-07 04:02 37.15288 122.24885 36007 ft 429 kts 305°
2026-05-07 04:03 37.18854 122.19071 36006 ft 414 kts 292°
2026-05-07 04:03 37.21056 122.12572 36015 ft 406 kts 284°
2026-05-07 04:04 37.22824 122.05864 36035 ft 405 kts 282°
2026-05-07 04:04 37.24526 121.99132 36020 ft 405 kts 282°
2026-05-07 04:05 37.26242 121.92398 36027 ft 405 kts 282°
2026-05-07 04:05 37.27967 121.85677 36023 ft 405 kts 282°
2026-05-07 04:06 37.29696 121.78946 36062 ft 405 kts 282°
2026-05-07 04:06 37.31406 121.72273 36030 ft 404 kts 282°
2026-05-07 04:07 37.33121 121.65553 36031 ft 404 kts 282°
2026-05-07 04:07 37.34834 121.58828 36035 ft 404 kts 282°
2026-05-07 04:08 37.36529 121.52157 36063 ft 404 kts 282°
2026-05-07 04:08 37.38232 121.45432 36040 ft 403 kts 282°
2026-05-07 04:09 37.39927 121.38721 36042 ft 403 kts 282°
2026-05-07 04:09 37.41618 121.32009 36041 ft 403 kts 282°
2026-05-07 04:10 37.43294 121.25338 36050 ft 403 kts 282°
2026-05-07 04:10 37.44979 121.18616 36052 ft 403 kts 282°
2026-05-07 04:11 37.46856 121.11949 36053 ft 406 kts 285°
2026-05-07 04:11 37.49041 121.05384 36059 ft 407 kts 286°
2026-05-07 04:12 37.51222 120.98799 36059 ft 407 kts 285°
2026-05-07 04:12 37.53326 120.92246 36065 ft 407 kts 285°
2026-05-07 04:13 37.55424 120.85617 36064 ft 407 kts 285°
2026-05-07 04:13 37.57511 120.78993 36063 ft 407 kts 285°
2026-05-07 04:14 37.59598 120.72411 36069 ft 407 kts 286°
2026-05-07 04:14 37.61786 120.65767 36070 ft 408 kts 286°
2026-05-07 04:15 37.63956 120.59212 36074 ft 408 kts 286°
2026-05-07 04:15 37.66365 120.52711 36079 ft 413 kts 291°
2026-05-07 04:16 37.69187 120.46390 36080 ft 414 kts 292°
2026-05-07 04:16 37.72069 120.40092 36080 ft 414 kts 292°
2026-05-07 04:17 37.74949 120.33796 36085 ft 413 kts 292°
2026-05-07 04:17 37.77790 120.27555 36088 ft 412 kts 292°
2026-05-07 04:18 37.80638 120.21271 36102 ft 412 kts 292°
2026-05-07 04:18 37.83484 120.14979 36093 ft 412 kts 292°
2026-05-07 04:19 37.86325 120.08687 36110 ft 412 kts 292°
2026-05-07 04:19 37.89140 120.02447 36093 ft 410 kts 292°
2026-05-07 04:20 37.91957 119.96183 36097 ft 410 kts 292°
2026-05-07 04:20 37.94770 119.89915 36099 ft 410 kts 292°
2026-05-07 04:21 37.98972 119.80533 36141 ft 409 kts 291°
2026-05-07 04:21 38.01765 119.74288 36101 ft 405 kts 291°
2026-05-07 04:22 38.04539 119.68067 36107 ft 405 kts 291°
2026-05-07 04:22 38.07305 119.61846 36107 ft 405 kts 291°
2026-05-07 04:23 38.10051 119.55662 36105 ft 405 kts 291°
2026-05-07 04:23 38.12421 119.49256 36105 ft 398 kts 286°
2026-05-07 04:24 38.14557 119.42793 36110 ft 397 kts 285°
2026-05-07 04:24 38.16655 119.36313 36113 ft 396 kts 285°
2026-05-07 04:25 38.18751 119.29831 36114 ft 397 kts 285°
2026-05-07 04:25 38.20836 119.23391 36118 ft 397 kts 285°
2026-05-07 04:26 38.22932 119.16911 36111 ft 396 kts 285°
2026-05-07 04:26 38.25023 119.10430 36120 ft 396 kts 285°
2026-05-07 04:27 38.27109 119.03951 36118 ft 396 kts 285°
2026-05-07 04:27 38.29178 118.97507 36119 ft 396 kts 285°
2026-05-07 04:28 38.31256 118.91024 36123 ft 396 kts 285°
2026-05-07 04:28 38.33333 118.84528 36130 ft 396 kts 285°
2026-05-07 04:29 38.35406 118.78028 36126 ft 396 kts 285°
2026-05-07 04:29 38.37483 118.71529 36129 ft 396 kts 285°
2026-05-07 04:30 38.39547 118.65069 36155 ft 396 kts 285°
2026-05-07 04:30 38.41618 118.58565 36132 ft 396 kts 285°
2026-05-07 04:31 38.43692 118.52043 36132 ft 397 kts 285°
2026-05-07 04:31 38.45758 118.45531 36132 ft 397 kts 285°
2026-05-07 04:32 38.47827 118.39002 36133 ft 397 kts 285°
2026-05-07 04:32 38.49879 118.32511 36129 ft 396 kts 286°
2026-05-07 04:33 38.51931 118.25977 36147 ft 397 kts 286°
2026-05-07 04:33 38.53985 118.19426 36133 ft 397 kts 286°
2026-05-07 04:34 38.56035 118.12880 36135 ft 397 kts 286°
2026-05-07 04:34 38.58128 118.06405 36165 ft 400 kts 290°
2026-05-07 04:35 38.61174 118.00348 36138 ft 413 kts 302°
2026-05-07 04:35 38.65086 117.94882 36137 ft 418 kts 305°
2026-05-07 04:36 38.69129 117.89533 36138 ft 419 kts 305°
2026-05-07 04:36 38.73152 117.84210 36141 ft 419 kts 305°
2026-05-07 04:37 38.77209 117.78790 36135 ft 423 kts 305°
2026-05-07 04:37 38.80593 117.74249 36136 ft 424 kts 305°
2026-05-07 04:38 38.84662 117.68781 36132 ft 423 kts 305°
2026-05-07 04:38 38.89381 117.62426 36132 ft 423 kts 305°
2026-05-07 04:39 38.93442 117.56945 36132 ft 423 kts 305°
2026-05-07 04:39 38.97492 117.51469 36131 ft 423 kts 305°
2026-05-07 04:40 39.00863 117.46904 36147 ft 423 kts 306°
2026-05-07 04:40 39.04803 117.41299 36136 ft 421 kts 300°
2026-05-07 04:41 39.08035 117.33747 36124 ft 411 kts 285°
2026-05-07 04:41 39.09185 117.27853 36123 ft 408 kts 278°
2026-05-07 04:42 39.10169 117.20670 36125 ft 408 kts 277°
2026-05-07 04:42 39.11091 117.13459 36143 ft 409 kts 278°
2026-05-07 04:43 39.12029 117.06223 36132 ft 410 kts 278°
2026-05-07 04:43 39.12977 116.99006 36147 ft 407 kts 278°
2026-05-07 04:44 39.14030 116.91896 36152 ft 408 kts 279°
2026-05-07 04:44 39.15194 116.84730 36159 ft 408 kts 280°
2026-05-07 04:45 39.16343 116.77557 36153 ft 409 kts 279°
2026-05-07 04:45 39.17468 116.70371 36151 ft 410 kts 279°
2026-05-07 04:46 39.18554 116.63203 36151 ft 409 kts 277°
2026-05-07 04:46 39.18772 116.55911 36175 ft 409 kts 266°
2026-05-07 04:47 39.17604 116.48711 36155 ft 414 kts 258°
2026-05-07 04:47 39.15975 116.41583 36157 ft 415 kts 257°
2026-05-07 04:48 39.14301 116.34513 36159 ft 415 kts 257°
2026-05-07 04:48 39.12626 116.27383 36160 ft 415 kts 257°
2026-05-07 04:49 39.10966 116.20265 36156 ft 415 kts 257°
2026-05-07 04:49 39.09311 116.13171 36165 ft 413 kts 257°
2026-05-07 04:50 39.07664 116.06127 36168 ft 413 kts 257°
2026-05-07 04:50 39.06004 115.99055 36167 ft 413 kts 257°
2026-05-07 04:51 39.04337 115.91979 36171 ft 414 kts 257°
2026-05-07 04:51 39.02657 115.84863 36168 ft 416 kts 257°
2026-05-07 04:52 39.00970 115.77744 36151 ft 416 kts 257°
2026-05-07 04:52 38.99298 115.70718 36167 ft 413 kts 257°
2026-05-07 04:53 38.97619 115.63679 36189 ft 412 kts 257°
2026-05-07 04:53 38.95932 115.56615 36171 ft 414 kts 257°
2026-05-07 04:54 38.94088 115.49578 36170 ft 418 kts 252°
2026-05-07 04:54 38.91764 115.42712 36167 ft 419 kts 251°
2026-05-07 04:55 38.89381 115.35933 36160 ft 418 kts 251°
2026-05-07 04:55 38.86987 115.29165 36170 ft 416 kts 251°
2026-05-07 04:56 38.84599 115.22393 36174 ft 417 kts 252°
2026-05-07 04:56 38.82203 115.15604 36171 ft 417 kts 251°
2026-05-07 04:57 38.79825 115.08878 36173 ft 417 kts 251°
2026-05-07 04:57 38.77422 115.02101 36124 ft 417 kts 251°
2026-05-07 04:58 38.75025 114.95370 36179 ft 414 kts 252°
2026-05-07 04:58 38.72639 114.88662 36177 ft 413 kts 252°
2026-05-07 04:59 38.70257 114.81961 36178 ft 413 kts 252°
2026-05-07 04:59 38.67885 114.75312 36174 ft 413 kts 252°
2026-05-07 05:00 38.65490 114.68621 36189 ft 414 kts 252°
2026-05-07 05:00 38.63095 114.61948 36178 ft 410 kts 252°
2026-05-07 05:01 38.60723 114.55361 36175 ft 407 kts 252°
2026-05-07 05:01 38.58353 114.48838 36183 ft 407 kts 252°
2026-05-07 05:02 38.55974 114.42277 36175 ft 407 kts 252°
2026-05-07 05:02 38.53589 114.35711 36191 ft 408 kts 252°
2026-05-07 05:03 38.51201 114.29141 36186 ft 408 kts 252°
2026-05-07 05:03 38.48819 114.22605 36191 ft 408 kts 252°
2026-05-07 05:04 38.46423 114.16043 36189 ft 409 kts 252°
2026-05-07 05:04 38.44017 114.09468 36194 ft 409 kts 252°
2026-05-07 05:05 38.41608 114.02903 36198 ft 409 kts 252°
2026-05-07 05:05 38.39199 113.96320 36199 ft 410 kts 252°
2026-05-07 05:06 38.36785 113.89762 36199 ft 405 kts 252°
2026-05-07 05:06 38.34415 113.83352 36198 ft 401 kts 252°
2026-05-07 05:07 38.32030 113.76928 36205 ft 401 kts 252°
2026-05-07 05:07 38.29603 113.70510 36206 ft 405 kts 252°
2026-05-07 05:08 38.27143 113.64020 36193 ft 408 kts 252°
2026-05-07 05:08 38.24691 113.57554 36220 ft 409 kts 252°
2026-05-07 05:09 38.22235 113.51090 36209 ft 403 kts 252°
2026-05-07 05:09 38.19803 113.44694 36211 ft 401 kts 252°
2026-05-07 05:10 38.17376 113.38317 36210 ft 400 kts 252°
2026-05-07 05:10 38.14983 113.31985 36220 ft 400 kts 253°
2026-05-07 05:11 38.12616 113.25604 36219 ft 400 kts 253°
2026-05-07 05:11 38.10239 113.19215 36188 ft 400 kts 253°
2026-05-07 05:12 38.07855 113.12839 36219 ft 399 kts 253°
2026-05-07 05:12 38.05461 113.06476 36235 ft 399 kts 253°
2026-05-07 05:13 38.03072 113.00124 36232 ft 399 kts 253°
2026-05-07 05:13 38.00703 112.93821 36238 ft 399 kts 253°
2026-05-07 05:14 37.98311 112.87478 36230 ft 399 kts 253°
2026-05-07 05:14 37.95914 112.81138 36205 ft 398 kts 252°
2026-05-07 05:15 37.93515 112.74809 36214 ft 399 kts 252°
2026-05-07 05:15 37.91123 112.68505 36211 ft 400 kts 252°
2026-05-07 05:16 37.88705 112.62158 36209 ft 400 kts 252°
2026-05-07 05:16 37.86257 112.55834 36209 ft 401 kts 251°
2026-05-07 05:17 37.83612 112.49593 36217 ft 403 kts 250°
2026-05-07 05:17 37.80924 112.43374 36202 ft 403 kts 250°
2026-05-07 05:18 37.78830 112.36985 36211 ft 390 kts 261°
2026-05-07 05:18 37.78069 112.30296 36211 ft 382 kts 273°
2026-05-07 05:19 37.78483 112.23636 36217 ft 380 kts 278°
2026-05-07 05:19 37.79144 112.17009 36207 ft 380 kts 278°
2026-05-07 05:20 37.79819 112.10409 36206 ft 383 kts 278°
2026-05-07 05:20 37.80470 112.03743 36219 ft 381 kts 278°
2026-05-07 05:21 37.81407 111.93790 36213 ft 380 kts 278°
2026-05-07 05:22 37.82027 111.87153 36226 ft 380 kts 278°
2026-05-07 05:22 37.82644 111.80565 36221 ft 380 kts 278°
2026-05-07 05:23 37.83265 111.73921 36235 ft 381 kts 278°
2026-05-07 05:23 37.83915 111.67271 36236 ft 382 kts 279°
2026-05-07 05:24 37.84656 111.60623 36230 ft 381 kts 279°
2026-05-07 05:24 37.85403 111.53974 36229 ft 382 kts 279°
2026-05-07 05:25 37.86111 111.47374 36234 ft 379 kts 278°
2026-05-07 05:25 37.86698 111.40741 36240 ft 379 kts 277°
2026-05-07 05:26 37.87254 111.34109 36243 ft 379 kts 277°
2026-05-07 05:26 37.87818 111.27467 36240 ft 380 kts 278°
2026-05-07 05:27 37.88384 111.20874 36239 ft 380 kts 278°
2026-05-07 05:27 37.88957 111.14210 36244 ft 380 kts 278°
2026-05-07 05:28 37.89526 111.07555 36242 ft 380 kts 278°
2026-05-07 05:28 37.90091 111.00900 36246 ft 380 kts 277°
2026-05-07 05:29 37.90651 110.94245 36245 ft 380 kts 277°
2026-05-07 05:29 37.91205 110.87633 36245 ft 380 kts 277°
2026-05-07 05:30 37.91757 110.80978 36214 ft 380 kts 277°
2026-05-07 05:30 37.92307 110.74306 36245 ft 381 kts 277°
2026-05-07 05:31 37.92854 110.67627 36245 ft 382 kts 277°
2026-05-07 05:31 37.93452 110.61002 36240 ft 381 kts 278°
2026-05-07 05:32 37.94150 110.54339 36243 ft 381 kts 278°
2026-05-07 05:32 37.94845 110.47686 36244 ft 381 kts 278°
2026-05-07 05:33 37.95522 110.41020 36243 ft 382 kts 278°
2026-05-07 05:33 37.96188 110.34334 36246 ft 383 kts 278°
2026-05-07 05:34 37.96844 110.27684 36236 ft 383 kts 278°
2026-05-07 05:34 37.97504 110.20991 36236 ft 383 kts 278°
2026-05-07 05:35 37.98158 110.14306 36232 ft 383 kts 278°
2026-05-07 05:35 37.98809 110.07607 36234 ft 383 kts 278°
2026-05-07 05:36 37.99457 110.00896 36228 ft 383 kts 278°
2026-05-07 05:36 38.00097 109.94233 36232 ft 383 kts 278°
2026-05-07 05:37 38.00740 109.87520 36226 ft 384 kts 278°
2026-05-07 05:37 38.01376 109.80805 36224 ft 383 kts 278°
2026-05-07 05:38 38.02008 109.74092 36226 ft 384 kts 278°
2026-05-07 05:38 38.02635 109.67412 36227 ft 384 kts 278°
2026-05-07 05:39 38.03262 109.60676 36227 ft 384 kts 278°
2026-05-07 05:39 38.03886 109.53940 36226 ft 384 kts 278°
2026-05-07 05:40 38.04501 109.47250 36228 ft 384 kts 278°
2026-05-07 05:40 38.05116 109.40516 36223 ft 385 kts 277°
2026-05-07 05:41 38.05730 109.33766 36220 ft 385 kts 277°
2026-05-07 05:41 38.06340 109.27007 36220 ft 385 kts 277°
2026-05-07 05:42 38.06947 109.20304 36214 ft 385 kts 277°
2026-05-07 05:42 38.07547 109.13546 36213 ft 385 kts 277°
2026-05-07 05:43 38.08145 109.06779 36214 ft 386 kts 277°
2026-05-07 05:43 38.08740 109.00002 36213 ft 387 kts 277°
2026-05-07 05:44 38.09333 108.93220 36204 ft 387 kts 277°
2026-05-07 05:44 38.09918 108.86484 36205 ft 387 kts 277°
2026-05-07 05:45 38.10503 108.79700 36200 ft 387 kts 277°
2026-05-07 05:45 38.11085 108.72914 36200 ft 387 kts 277°
2026-05-07 05:46 38.11664 108.66111 36197 ft 388 kts 277°
2026-05-07 05:46 38.12236 108.59346 36197 ft 388 kts 277°
2026-05-07 05:47 38.12807 108.52541 36193 ft 388 kts 277°
2026-05-07 05:47 38.13374 108.45730 36195 ft 388 kts 277°
2026-05-07 05:48 38.13939 108.38913 36189 ft 389 kts 276°
2026-05-07 05:48 38.14500 108.32079 36190 ft 389 kts 276°
2026-05-07 05:49 38.15107 108.25258 36187 ft 389 kts 277°
2026-05-07 05:49 38.15796 108.18491 36190 ft 389 kts 277°
2026-05-07 05:50 38.16489 108.11672 36191 ft 389 kts 277°
2026-05-07 05:50 38.17163 108.04851 36189 ft 389 kts 277°
2026-05-07 05:51 38.17825 107.98033 36188 ft 389 kts 277°
2026-05-07 05:51 38.18479 107.91252 36189 ft 390 kts 277°
2026-05-07 05:52 38.19136 107.84407 36184 ft 390 kts 277°
2026-05-07 05:52 38.19788 107.77572 36184 ft 390 kts 277°
2026-05-07 05:53 38.20472 107.70734 36181 ft 391 kts 278°
2026-05-07 05:53 38.21264 107.63940 36181 ft 391 kts 278°
2026-05-07 05:54 38.22070 107.57106 36177 ft 391 kts 278°
2026-05-07 05:54 38.22856 107.50251 36178 ft 391 kts 278°
2026-05-07 05:55 38.23629 107.43404 36173 ft 391 kts 278°
2026-05-07 05:55 38.24390 107.36599 36172 ft 392 kts 278°
2026-05-07 05:56 38.25155 107.29730 36174 ft 393 kts 278°
2026-05-07 05:56 38.25917 107.22856 36172 ft 393 kts 278°
2026-05-07 05:57 38.26677 107.15968 36169 ft 393 kts 278°
2026-05-07 05:57 38.27426 107.09132 36169 ft 393 kts 278°
2026-05-07 05:58 38.28177 107.02244 36168 ft 393 kts 277°
2026-05-07 05:58 38.28927 106.95328 36161 ft 395 kts 277°
2026-05-07 05:59 38.29674 106.88399 36155 ft 395 kts 277°
2026-05-07 05:59 38.30411 106.81528 36154 ft 395 kts 277°
2026-05-07 06:00 38.31150 106.74592 36165 ft 395 kts 277°
2026-05-07 06:00 38.31885 106.67665 36147 ft 395 kts 277°
2026-05-07 06:01 38.32618 106.60710 36156 ft 397 kts 277°
2026-05-07 06:01 38.33348 106.53738 36150 ft 397 kts 277°
2026-05-07 06:02 38.34070 106.46808 36145 ft 397 kts 277°
2026-05-07 06:02 38.35119 106.39896 36144 ft 399 kts 285°
2026-05-07 06:03 38.36965 106.33219 36139 ft 400 kts 288°
2026-05-07 06:03 38.38945 106.26586 36143 ft 401 kts 288°
2026-05-07 06:04 38.40930 106.19989 36136 ft 401 kts 288°
2026-05-07 06:04 38.42913 106.13341 36138 ft 401 kts 288°
2026-05-07 06:05 38.44895 106.06684 36137 ft 401 kts 288°
2026-05-07 06:05 38.46874 106.00029 36146 ft 401 kts 288°
2026-05-07 06:06 38.48836 105.93412 36150 ft 401 kts 288°
2026-05-07 06:06 38.50806 105.86751 36153 ft 401 kts 288°
2026-05-07 06:07 38.52776 105.80092 36154 ft 401 kts 288°
2026-05-07 06:07 38.54739 105.73429 36146 ft 401 kts 288°
2026-05-07 06:08 38.56696 105.66762 36145 ft 401 kts 288°
2026-05-07 06:08 38.58657 105.60069 36137 ft 402 kts 288°
2026-05-07 06:09 38.60603 105.53413 36136 ft 403 kts 288°
2026-05-07 06:09 38.62562 105.46698 36124 ft 403 kts 288°
2026-05-07 06:10 38.64521 105.39966 36125 ft 403 kts 287°
2026-05-07 06:10 38.66472 105.33243 36119 ft 403 kts 287°
2026-05-07 06:11 38.68406 105.26563 36116 ft 404 kts 287°
2026-05-07 06:11 38.70357 105.19806 36128 ft 405 kts 287°
2026-05-07 06:12 38.72309 105.13028 36119 ft 405 kts 287°
2026-05-07 06:12 38.74018 105.06219 36114 ft 404 kts 283°
2026-05-07 06:13 38.75454 104.99271 36127 ft 403 kts 282°
2026-05-07 06:13 38.76940 104.92342 36123 ft 405 kts 287°
2026-05-07 06:14 38.78957 104.85579 36124 ft 407 kts 288°
2026-05-07 06:14 38.81076 104.78837 36115 ft 408 kts 289°
2026-05-07 06:15 38.83196 104.72145 36113 ft 408 kts 289°
2026-05-07 06:15 38.85318 104.65408 36115 ft 407 kts 289°
2026-05-07 06:16 38.87428 104.58670 36109 ft 407 kts 289°
2026-05-07 06:16 38.89536 104.51917 36135 ft 407 kts 289°
2026-05-07 06:17 38.91625 104.45211 36106 ft 407 kts 289°
2026-05-07 06:17 38.93724 104.38455 36104 ft 407 kts 289°
2026-05-07 06:18 38.95819 104.31698 36101 ft 407 kts 289°
2026-05-07 06:18 38.97909 104.24940 36094 ft 407 kts 288°
2026-05-07 06:19 38.99985 104.18208 36089 ft 408 kts 288°
2026-05-07 06:19 39.02072 104.11424 36091 ft 409 kts 288°
2026-05-07 06:20 39.04161 104.04622 36085 ft 409 kts 288°
2026-05-07 06:20 39.06245 103.97816 36087 ft 409 kts 288°
2026-05-07 06:21 39.08324 103.91008 36084 ft 409 kts 288°
2026-05-07 06:21 39.10386 103.84242 36075 ft 409 kts 288°
2026-05-07 06:22 39.12463 103.77405 36080 ft 410 kts 288°
2026-05-07 06:22 39.15575 103.67132 36092 ft 411 kts 288°
2026-05-07 06:23 39.17649 103.60269 36088 ft 411 kts 288°
2026-05-07 06:23 39.19715 103.53408 36079 ft 411 kts 288°
2026-05-07 06:24 39.21765 103.46587 36075 ft 411 kts 288°
2026-05-07 06:24 39.23831 103.39693 36079 ft 412 kts 288°
2026-05-07 06:25 39.25896 103.32786 36083 ft 413 kts 288°
2026-05-07 06:25 39.27944 103.25917 36076 ft 413 kts 288°
2026-05-07 06:26 39.30001 103.19001 36072 ft 413 kts 288°
2026-05-07 06:26 39.32056 103.12076 36068 ft 413 kts 288°
2026-05-07 06:27 39.34110 103.05132 36069 ft 414 kts 288°
2026-05-07 06:27 39.36165 102.98174 36069 ft 415 kts 288°
2026-05-07 06:28 39.38192 102.91251 36070 ft 415 kts 288°
2026-05-07 06:28 39.40215 102.84269 36069 ft 415 kts 288°
2026-05-07 06:29 39.42066 102.77230 36069 ft 412 kts 282°
2026-05-07 06:29 39.43152 102.69950 36067 ft 413 kts 278°
2026-05-07 06:30 39.44071 102.62664 36067 ft 413 kts 277°
2026-05-07 06:30 39.44899 102.55302 36067 ft 413 kts 277°
2026-05-07 06:31 39.45721 102.47944 36058 ft 413 kts 277°
2026-05-07 06:31 39.46557 102.40589 36056 ft 413 kts 277°
2026-05-07 06:32 39.47397 102.33219 36057 ft 414 kts 277°
2026-05-07 06:32 39.48230 102.25887 36056 ft 415 kts 277°
2026-05-07 06:33 39.49065 102.18497 36053 ft 415 kts 277°
2026-05-07 06:33 39.49893 102.11115 36053 ft 415 kts 277°
2026-05-07 06:34 39.50718 102.03726 36039 ft 414 kts 277°
2026-05-07 06:34 39.51533 101.96369 36039 ft 416 kts 277°
2026-05-07 06:35 39.52350 101.88950 36051 ft 416 kts 277°
2026-05-07 06:35 39.53164 101.81529 36047 ft 416 kts 277°
2026-05-07 06:36 39.53972 101.74110 36047 ft 416 kts 276°
2026-05-07 06:36 39.54770 101.66732 36038 ft 416 kts 276°
2026-05-07 06:37 39.55570 101.59296 36037 ft 418 kts 276°
2026-05-07 06:37 39.56367 101.51834 36040 ft 418 kts 276°
2026-05-07 06:38 39.57159 101.44377 36028 ft 418 kts 276°
2026-05-07 06:38 39.57943 101.36959 36028 ft 418 kts 276°
2026-05-07 06:39 39.58725 101.29501 36032 ft 418 kts 276°
2026-05-07 06:39 39.59505 101.22022 36046 ft 419 kts 276°
2026-05-07 06:40 39.60281 101.14526 36038 ft 419 kts 276°
2026-05-07 06:40 39.61053 101.07029 36043 ft 419 kts 276°
2026-05-07 06:41 39.61820 100.99532 36048 ft 419 kts 276°
2026-05-07 06:41 39.62577 100.92084 36034 ft 419 kts 276°
2026-05-07 06:42 39.63332 100.84601 36033 ft 419 kts 276°
2026-05-07 06:42 39.64085 100.77087 36032 ft 419 kts 276°
2026-05-07 06:43 39.64827 100.69639 36041 ft 419 kts 276°
2026-05-07 06:43 39.65569 100.62142 36034 ft 419 kts 276°
2026-05-07 06:44 39.66307 100.54628 36022 ft 420 kts 276°
2026-05-07 06:44 39.67041 100.47109 36029 ft 420 kts 275°
2026-05-07 06:45 39.67772 100.39571 36030 ft 421 kts 275°
2026-05-07 06:45 39.68492 100.32095 36028 ft 421 kts 275°
2026-05-07 06:46 39.69214 100.24550 36025 ft 421 kts 275°
2026-05-07 06:46 39.69928 100.17022 36041 ft 421 kts 275°
2026-05-07 06:47 39.70640 100.09465 36022 ft 422 kts 275°
2026-05-07 06:47 39.71343 100.01960 36025 ft 422 kts 275°
2026-05-07 06:48 39.72045 99.94406 36019 ft 421 kts 275°
2026-05-07 06:48 39.72743 99.86847 36025 ft 421 kts 275°
2026-05-07 06:49 39.73435 99.79286 36018 ft 422 kts 275°
2026-05-07 06:49 39.74124 99.71712 36020 ft 422 kts 275°
2026-05-07 06:50 39.74804 99.64192 36007 ft 422 kts 275°
2026-05-07 06:50 39.75482 99.56621 36020 ft 422 kts 275°
2026-05-07 06:51 39.76156 99.49049 36008 ft 422 kts 275°
2026-05-07 06:51 39.76824 99.41467 36011 ft 422 kts 275°
2026-05-07 06:52 39.77483 99.33934 36004 ft 422 kts 275°
2026-05-07 06:52 39.78144 99.26348 36005 ft 422 kts 275°
2026-05-07 06:53 39.78800 99.18758 36002 ft 422 kts 275°
2026-05-07 06:53 39.79449 99.11178 36002 ft 422 kts 275°
2026-05-07 06:54 39.80094 99.03581 36008 ft 423 kts 274°
2026-05-07 06:54 39.80731 98.96027 36009 ft 423 kts 274°
2026-05-07 06:55 39.81289 98.88419 36012 ft 423 kts 273°
2026-05-07 06:55 39.81744 98.80784 36000 ft 423 kts 272°
2026-05-07 06:56 39.82201 98.73162 36002 ft 423 kts 273°
2026-05-07 06:56 39.82673 98.65541 36008 ft 423 kts 273°
2026-05-07 06:57 39.83146 98.57952 36023 ft 423 kts 273°
2026-05-07 06:57 39.83617 98.50323 36026 ft 423 kts 273°
2026-05-07 06:58 39.84082 98.42685 36018 ft 423 kts 273°
2026-05-07 06:58 39.84301 98.35088 36017 ft 422 kts 265°
2026-05-07 06:59 39.83640 98.27499 36039 ft 422 kts 262°
2026-05-07 06:59 39.82813 98.19946 36047 ft 422 kts 261°
2026-05-07 07:00 39.81958 98.12388 36076 ft 422 kts 261°
2026-05-07 07:00 39.81109 98.04840 36059 ft 422 kts 261°
2026-05-07 07:01 39.80262 97.97280 36067 ft 422 kts 261°
2026-05-07 07:01 39.79420 97.89774 36069 ft 423 kts 261°
2026-05-07 07:02 39.78564 97.82209 36074 ft 423 kts 261°
2026-05-07 07:02 39.77703 97.74645 36075 ft 423 kts 261°
2026-05-07 07:03 39.76837 97.67074 36116 ft 423 kts 261°
2026-05-07 07:03 39.75972 97.59557 36118 ft 423 kts 261°
2026-05-07 07:04 39.75094 97.51982 36119 ft 425 kts 260°
2026-05-07 07:04 39.74112 97.44430 36117 ft 423 kts 259°
2026-05-07 07:05 39.73080 97.36901 36111 ft 424 kts 259°
2026-05-07 07:05 39.72227 97.30641 36111 ft 424 kts 259°
2026-05-07 07:06 39.71062 97.21852 36130 ft 425 kts 259°
2026-05-07 07:06 39.70072 97.14280 36133 ft 426 kts 259°
2026-05-07 07:07 39.69248 97.07995 36128 ft 425 kts 259°
2026-05-07 07:07 39.68240 97.00428 36132 ft 425 kts 259°
2026-05-07 07:08 39.67227 96.92877 36122 ft 425 kts 259°
2026-05-07 07:08 39.66048 96.84098 36133 ft 426 kts 259°
2026-05-07 07:09 39.65199 96.77790 36147 ft 427 kts 259°
2026-05-07 07:09 39.64171 96.70218 36137 ft 426 kts 259°
2026-05-07 07:10 39.62970 96.61428 36162 ft 426 kts 259°
2026-05-07 07:10 39.62143 96.55088 36165 ft 426 kts 260°
2026-05-07 07:11 39.61192 96.47556 36159 ft 426 kts 259°
2026-05-07 07:11 39.60227 96.39981 36162 ft 427 kts 259°
2026-05-07 07:12 39.59246 96.32382 36166 ft 428 kts 259°
2026-05-07 07:12 39.58249 96.24739 36175 ft 430 kts 259°
2026-05-07 07:13 39.57253 96.17103 36172 ft 429 kts 259°
2026-05-07 07:13 39.56261 96.09548 36174 ft 427 kts 259°
2026-05-07 07:14 39.55378 96.01929 36161 ft 429 kts 260°
2026-05-07 07:14 39.54571 95.94259 36168 ft 429 kts 260°
2026-05-07 07:15 39.53743 95.86606 36167 ft 429 kts 260°
2026-05-07 07:15 39.52901 95.78994 36171 ft 430 kts 260°
2026-05-07 07:16 39.52032 95.71326 36171 ft 430 kts 260°
2026-05-07 07:16 39.51166 95.63666 36167 ft 429 kts 260°
2026-05-07 07:17 39.50296 95.56015 36179 ft 429 kts 260°
2026-05-07 07:17 39.49429 95.48423 36184 ft 429 kts 260°
2026-05-07 07:18 39.48551 95.40784 36180 ft 429 kts 259°
2026-05-07 07:18 39.47666 95.33138 36181 ft 429 kts 259°
2026-05-07 07:19 39.46775 95.25484 36164 ft 430 kts 259°
2026-05-07 07:19 39.45883 95.17875 36166 ft 431 kts 259°
2026-05-07 07:20 39.44978 95.10194 36166 ft 432 kts 259°
2026-05-07 07:20 39.44068 95.02512 36160 ft 432 kts 259°
2026-05-07 07:21 39.43151 94.94815 36156 ft 433 kts 259°
2026-05-07 07:21 39.42231 94.87111 36130 ft 435 kts 259°
2026-05-07 07:22 39.41304 94.79427 36143 ft 436 kts 259°
2026-05-07 07:22 39.40374 94.71704 36143 ft 435 kts 259°
2026-05-07 07:23 39.39429 94.63990 36153 ft 434 kts 258°
2026-05-07 07:23 39.38483 94.56255 36153 ft 437 kts 258°
2026-05-07 07:24 39.37541 94.48548 36147 ft 436 kts 259°
2026-05-07 07:24 39.36586 94.40813 36140 ft 435 kts 258°
2026-05-07 07:25 39.35120 94.29250 36134 ft 435 kts 258°
2026-05-07 07:26 39.34148 94.21530 36155 ft 435 kts 258°
2026-05-07 07:26 39.33182 94.13860 36134 ft 434 kts 258°
2026-05-07 07:27 39.32204 94.06157 36173 ft 435 kts 258°
2026-05-07 07:27 39.31212 93.98411 36179 ft 438 kts 258°
2026-05-07 07:28 39.30219 93.90674 36184 ft 437 kts 258°
2026-05-07 07:28 39.29224 93.82990 36201 ft 437 kts 258°
2026-05-07 07:29 39.28220 93.75266 36210 ft 438 kts 258°
2026-05-07 07:29 39.27201 93.67487 36203 ft 440 kts 258°
2026-05-07 07:30 39.26181 93.59724 36211 ft 438 kts 258°
2026-05-07 07:30 39.25165 93.51974 36213 ft 438 kts 257°
2026-05-07 07:31 39.24135 93.44226 36208 ft 439 kts 257°
2026-05-07 07:31 39.23105 93.36531 36208 ft 439 kts 257°
2026-05-07 07:32 39.22066 93.28788 36212 ft 439 kts 257°
2026-05-07 07:32 39.21016 93.21040 36197 ft 439 kts 257°
2026-05-07 07:33 39.19974 93.13300 36186 ft 437 kts 257°
2026-05-07 07:33 39.18938 93.05646 36162 ft 436 kts 257°
2026-05-07 07:34 39.17875 92.97904 36175 ft 442 kts 257°
2026-05-07 07:34 39.16798 92.90113 36174 ft 441 kts 257°
2026-05-07 07:35 39.15720 92.82356 36163 ft 439 kts 257°
2026-05-07 07:35 39.14646 92.74612 36166 ft 440 kts 257°
2026-05-07 07:36 39.13570 92.66907 36172 ft 441 kts 257°
2026-05-07 07:36 39.12475 92.59115 36171 ft 443 kts 257°
2026-05-07 07:37 39.11372 92.51303 36147 ft 444 kts 257°
2026-05-07 07:37 39.10264 92.43486 36165 ft 444 kts 257°
2026-05-07 07:38 39.09158 92.35713 36172 ft 445 kts 257°
2026-05-07 07:38 39.08856 92.27738 36197 ft 451 kts 271°
2026-05-07 07:39 39.09847 92.19734 36184 ft 455 kts 276°
2026-05-07 07:39 39.11087 92.11723 36186 ft 455 kts 277°
2026-05-07 07:40 39.12343 92.03754 36186 ft 453 kts 277°
2026-05-07 07:40 39.13557 91.95841 36201 ft 454 kts 276°
2026-05-07 07:41 39.14760 91.87858 36205 ft 454 kts 276°
2026-05-07 07:41 39.15955 91.79868 36210 ft 454 kts 276°
2026-05-07 07:42 39.17144 91.71872 36213 ft 455 kts 276°
2026-05-07 07:42 39.18327 91.63905 36223 ft 455 kts 276°
2026-05-07 07:43 39.19509 91.55912 36221 ft 454 kts 276°
2026-05-07 07:43 39.20685 91.47918 36195 ft 455 kts 276°
2026-05-07 07:44 39.21876 91.39877 36197 ft 458 kts 277°
2026-05-07 07:44 39.23330 91.31865 36199 ft 459 kts 279°
2026-05-07 07:45 39.24851 91.23924 36191 ft 458 kts 279°
2026-05-07 07:45 39.26345 91.15936 36191 ft 458 kts 278°
2026-05-07 07:46 39.27804 91.07928 36191 ft 460 kts 278°
2026-05-07 07:46 39.29256 90.99879 36193 ft 460 kts 278°
2026-05-07 07:47 39.30703 90.91831 36159 ft 460 kts 278°
2026-05-07 07:47 39.32137 90.83830 36160 ft 461 kts 278°
2026-05-07 07:48 39.33575 90.75772 36161 ft 461 kts 279°
2026-05-07 07:48 39.35008 90.67702 36165 ft 461 kts 279°
2026-05-07 07:49 39.36441 90.59599 36143 ft 464 kts 279°
2026-05-07 07:49 39.37868 90.51499 36143 ft 465 kts 279°
2026-05-07 07:50 39.39299 90.43344 36130 ft 465 kts 279°
2026-05-07 07:50 39.40723 90.35183 36095 ft 466 kts 280°
2026-05-07 07:51 39.42151 90.26962 36082 ft 470 kts 280°
2026-05-07 07:51 39.43569 90.18769 36083 ft 470 kts 280°
2026-05-07 07:52 39.44992 90.10523 36071 ft 470 kts 280°
2026-05-07 07:52 39.46409 90.02260 36069 ft 470 kts 280°
2026-05-07 07:53 39.47819 89.93991 36060 ft 473 kts 281°
2026-05-07 07:53 39.49236 89.85652 36040 ft 475 kts 281°
2026-05-07 07:54 39.50637 89.77370 36040 ft 475 kts 281°
2026-05-07 07:54 39.52045 89.69015 36031 ft 475 kts 281°
2026-05-07 07:55 39.53446 89.60654 36030 ft 475 kts 281°
2026-05-07 07:55 39.54838 89.52309 36023 ft 475 kts 280°
2026-05-07 07:56 39.56218 89.43998 36023 ft 475 kts 280°
2026-05-07 07:56 39.57599 89.35637 36020 ft 475 kts 280°
2026-05-07 07:57 39.58976 89.27253 36018 ft 477 kts 281°
2026-05-07 07:57 39.60356 89.18827 36016 ft 479 kts 281°
2026-05-07 07:58 39.61730 89.10396 36015 ft 481 kts 281°
2026-05-07 07:58 39.63108 89.01900 36015 ft 482 kts 281°
2026-05-07 07:59 39.64480 88.93397 36015 ft 482 kts 281°
2026-05-07 07:59 39.65844 88.84895 36011 ft 482 kts 281°
2026-05-07 08:00 39.67208 88.76349 36014 ft 485 kts 282°
2026-05-07 08:00 39.68564 88.67827 36016 ft 485 kts 282°
2026-05-07 08:01 39.69920 88.59250 36014 ft 485 kts 281°
2026-05-07 08:01 39.71273 88.50651 36012 ft 485 kts 281°
2026-05-07 08:02 39.72616 88.42062 36012 ft 486 kts 282°
2026-05-07 08:02 39.73958 88.33450 36012 ft 486 kts 282°
2026-05-07 08:03 39.75285 88.24886 36011 ft 487 kts 282°
2026-05-07 08:03 39.76613 88.16272 36012 ft 487 kts 282°
2026-05-07 08:04 39.77936 88.07641 36009 ft 487 kts 282°
2026-05-07 08:04 39.79254 87.98999 36012 ft 488 kts 282°
2026-05-07 08:05 39.80562 87.90399 36012 ft 489 kts 282°
2026-05-07 08:05 39.81873 87.81728 36012 ft 489 kts 282°
2026-05-07 08:06 39.83173 87.73037 36012 ft 489 kts 282°
2026-05-07 08:06 39.84464 87.64362 36014 ft 489 kts 282°
2026-05-07 08:07 39.85753 87.55670 36015 ft 489 kts 282°
2026-05-07 08:07 39.87025 87.47049 36012 ft 489 kts 282°
2026-05-07 08:08 39.88300 87.38364 36011 ft 489 kts 282°
2026-05-07 08:08 39.89567 87.29688 36010 ft 488 kts 282°
2026-05-07 08:09 39.90822 87.21040 36010 ft 488 kts 281°
2026-05-07 08:09 39.92078 87.12344 36012 ft 488 kts 281°
2026-05-07 08:10 39.93325 87.03654 36017 ft 488 kts 281°
2026-05-07 08:10 39.94568 86.94949 36015 ft 488 kts 281°
2026-05-07 08:11 39.95796 86.86301 36016 ft 488 kts 281°
2026-05-07 08:11 39.97023 86.77607 36015 ft 488 kts 281°
2026-05-07 08:12 39.98246 86.68896 36012 ft 488 kts 281°
2026-05-07 08:12 39.99462 86.60188 36012 ft 488 kts 281°
2026-05-07 08:13 40.00662 86.51544 36011 ft 487 kts 281°
2026-05-07 08:13 40.01860 86.42863 36015 ft 487 kts 281°
2026-05-07 08:14 40.03056 86.34148 36014 ft 487 kts 281°
2026-05-07 08:14 40.04242 86.25452 36014 ft 487 kts 281°
2026-05-07 08:15 40.05423 86.16746 36009 ft 487 kts 281°
2026-05-07 08:15 40.06588 86.08101 36017 ft 487 kts 281°
2026-05-07 08:16 40.07870 85.99437 36016 ft 486 kts 285°
2026-05-07 08:16 40.09666 85.90924 36015 ft 486 kts 286°
2026-05-07 08:17 40.11539 85.82444 36016 ft 486 kts 287°
2026-05-07 08:17 40.13420 85.73954 36018 ft 486 kts 287°
2026-05-07 08:18 40.15273 85.65522 36013 ft 486 kts 287°
2026-05-07 08:18 40.17127 85.57028 36011 ft 486 kts 286°
2026-05-07 08:19 40.18974 85.48534 36017 ft 486 kts 286°
2026-05-07 08:19 40.20815 85.40027 36015 ft 485 kts 286°
2026-05-07 08:20 40.22635 85.31589 36016 ft 485 kts 286°
2026-05-07 08:20 40.24461 85.23090 36015 ft 485 kts 286°
2026-05-07 08:21 40.26282 85.14579 36013 ft 485 kts 286°
2026-05-07 08:21 40.28095 85.06074 36015 ft 485 kts 286°
2026-05-07 08:22 40.29904 84.97553 36015 ft 485 kts 286°
2026-05-07 08:22 40.31691 84.89104 36015 ft 485 kts 286°
2026-05-07 08:23 40.33486 84.80581 36015 ft 485 kts 286°
2026-05-07 08:23 40.35274 84.72055 36015 ft 485 kts 285°
2026-05-07 08:24 40.37057 84.63519 36014 ft 484 kts 286°
2026-05-07 08:24 40.38828 84.55006 36015 ft 484 kts 286°
2026-05-07 08:25 40.40580 84.46556 36014 ft 484 kts 285°
2026-05-07 08:25 40.42341 84.38020 36015 ft 484 kts 285°
2026-05-07 08:26 40.44967 84.25235 36012 ft 484 kts 285°
2026-05-07 08:26 40.46707 84.16714 36012 ft 483 kts 285°
2026-05-07 08:27 40.48430 84.08246 36013 ft 483 kts 285°
2026-05-07 08:27 40.50159 83.99714 36015 ft 483 kts 285°
2026-05-07 08:28 40.51883 83.91179 36015 ft 483 kts 285°
2026-05-07 08:28 40.53658 83.82664 36018 ft 483 kts 286°
2026-05-07 08:29 40.55451 83.74175 36018 ft 482 kts 286°
2026-05-07 08:29 40.57222 83.65724 36017 ft 482 kts 286°
2026-05-07 08:30 40.58990 83.57209 36018 ft 482 kts 286°
2026-05-07 08:30 40.60749 83.48695 36018 ft 482 kts 286°
2026-05-07 08:31 40.62497 83.40196 36012 ft 481 kts 286°
2026-05-07 08:31 40.64230 83.31736 36013 ft 481 kts 286°
2026-05-07 08:32 40.65966 83.23232 36013 ft 481 kts 286°
2026-05-07 08:32 40.67696 83.14722 36008 ft 481 kts 286°
2026-05-07 08:33 40.69420 83.06201 36012 ft 480 kts 286°
2026-05-07 08:33 40.71123 82.97757 36010 ft 480 kts 286°
2026-05-07 08:34 40.72831 82.89249 36012 ft 480 kts 285°
2026-05-07 08:34 40.74533 82.80736 36012 ft 480 kts 285°
2026-05-07 08:35 40.76230 82.72210 36012 ft 480 kts 285°
2026-05-07 08:35 40.77919 82.63693 36012 ft 481 kts 285°
2026-05-07 08:36 40.79594 82.55205 36010 ft 481 kts 285°
2026-05-07 08:36 40.81272 82.46669 36009 ft 481 kts 285°
2026-05-07 08:37 40.82944 82.38127 36004 ft 481 kts 285°
2026-05-07 08:37 40.84612 82.29571 36008 ft 480 kts 285°
2026-05-07 08:38 40.86268 82.21034 36016 ft 480 kts 285°
2026-05-07 08:38 40.87909 82.12543 36006 ft 480 kts 285°
2026-05-07 08:39 40.89553 82.03998 36004 ft 480 kts 285°
2026-05-07 08:39 40.91194 81.95433 36001 ft 480 kts 285°
2026-05-07 08:40 40.92828 81.86864 36000 ft 480 kts 285°
2026-05-07 08:40 40.94442 81.78364 36007 ft 480 kts 285°
2026-05-07 08:41 40.96064 81.69782 35997 ft 480 kts 285°
2026-05-07 08:41 40.97742 81.61228 35995 ft 480 kts 287°
2026-05-07 08:42 40.99683 81.52790 35992 ft 479 kts 288°
2026-05-07 08:42 41.01640 81.44416 35992 ft 479 kts 288°
2026-05-07 08:43 41.03563 81.35970 36002 ft 479 kts 287°
2026-05-07 08:43 41.05457 81.27499 35989 ft 479 kts 287°
2026-05-07 08:44 41.07339 81.19028 36001 ft 479 kts 287°
2026-05-07 08:44 41.09214 81.10563 35999 ft 479 kts 287°
2026-05-07 08:45 41.11075 81.02134 35997 ft 479 kts 287°
2026-05-07 08:45 41.12939 80.93659 36002 ft 479 kts 287°
2026-05-07 08:46 41.14800 80.85165 35984 ft 479 kts 287°
2026-05-07 08:46 41.16650 80.76686 36001 ft 479 kts 287°
2026-05-07 08:47 41.18496 80.68195 36000 ft 479 kts 287°
2026-05-07 08:47 41.20321 80.59764 35993 ft 477 kts 287°
2026-05-07 08:48 41.22151 80.51283 35997 ft 478 kts 287°
2026-05-07 08:48 41.23975 80.42791 35997 ft 478 kts 287°
2026-05-07 08:49 41.25796 80.34282 35997 ft 479 kts 287°
2026-05-07 08:49 41.27591 80.25824 35994 ft 479 kts 287°
2026-05-07 08:50 41.29383 80.17317 36003 ft 479 kts 287°
2026-05-07 08:50 41.31175 80.08774 36010 ft 480 kts 287°
2026-05-07 08:51 41.32964 80.00220 36004 ft 480 kts 287°
2026-05-07 08:51 41.34744 79.91669 36019 ft 480 kts 287°
2026-05-07 08:52 41.36511 79.83153 36027 ft 480 kts 287°
2026-05-07 08:52 41.38282 79.74573 36023 ft 481 kts 287°
2026-05-07 08:53 41.40047 79.65989 36047 ft 481 kts 287°
2026-05-07 08:53 41.41808 79.57399 36057 ft 481 kts 287°
2026-05-07 08:54 41.43560 79.48810 36050 ft 481 kts 287°
2026-05-07 08:54 41.45295 79.40269 36062 ft 480 kts 288°
2026-05-07 08:55 41.47034 79.31668 36101 ft 481 kts 288°
2026-05-07 08:55 41.48767 79.23060 36139 ft 480 kts 288°
2026-05-07 08:56 41.50493 79.14457 36138 ft 480 kts 288°
2026-05-07 08:56 41.52199 79.05916 36195 ft 479 kts 288°
2026-05-07 08:57 41.53907 78.97322 36214 ft 479 kts 288°
2026-05-07 08:57 41.55618 78.88706 36223 ft 481 kts 288°
2026-05-07 08:58 41.56494 78.79806 36231 ft 488 kts 273°
2026-05-07 08:58 41.56337 78.70724 36240 ft 490 kts 271°
2026-05-07 08:59 41.56014 78.61699 36233 ft 491 kts 270°
2026-05-07 08:59 41.55676 78.52586 36238 ft 491 kts 270°
2026-05-07 09:00 41.55359 78.43484 36243 ft 491 kts 270°
2026-05-07 09:00 41.55042 78.34374 36233 ft 492 kts 270°
2026-05-07 09:01 41.54719 78.25314 36230 ft 491 kts 270°
2026-05-07 09:01 41.54389 78.16206 36223 ft 491 kts 270°
2026-05-07 09:02 41.54051 78.07107 36219 ft 490 kts 270°
2026-05-07 09:02 41.53705 77.98010 36223 ft 491 kts 270°
2026-05-07 09:03 41.53348 77.88910 36230 ft 491 kts 270°
2026-05-07 09:03 41.52987 77.79882 36212 ft 490 kts 270°
2026-05-07 09:04 41.52620 77.70798 36224 ft 490 kts 270°
2026-05-07 09:04 41.52246 77.61719 36223 ft 490 kts 270°
2026-05-07 09:05 41.51864 77.52649 36213 ft 489 kts 270°
2026-05-07 09:05 41.51478 77.43657 36210 ft 488 kts 270°
2026-05-07 09:06 41.51085 77.34626 36204 ft 488 kts 270°
2026-05-07 09:06 41.50684 77.25595 36204 ft 488 kts 270°
2026-05-07 09:07 41.50275 77.16554 36196 ft 487 kts 269°
2026-05-07 09:07 41.49867 77.07605 36185 ft 487 kts 269°
2026-05-07 09:08 41.49437 76.98559 36195 ft 489 kts 269°
2026-05-07 09:08 41.49009 76.89543 36165 ft 487 kts 269°
2026-05-07 09:09 41.48572 76.80515 36164 ft 486 kts 269°
2026-05-07 09:09 41.48135 76.71618 36161 ft 483 kts 269°
2026-05-07 09:10 41.47690 76.62688 36138 ft 483 kts 269°
2026-05-07 09:10 41.47238 76.53727 36145 ft 484 kts 269°
2026-05-07 09:11 41.46777 76.44781 36138 ft 483 kts 269°
2026-05-07 09:11 41.46311 76.35865 36138 ft 482 kts 269°
2026-05-07 09:12 41.45842 76.27023 36135 ft 482 kts 269°
2026-05-07 09:12 41.45362 76.18114 36129 ft 482 kts 269°
2026-05-07 09:13 41.44877 76.09221 36129 ft 481 kts 268°
2026-05-07 09:13 41.44386 76.00349 36124 ft 480 kts 268°
2026-05-07 09:14 41.43887 75.91473 36126 ft 480 kts 268°
2026-05-07 09:14 41.43386 75.82668 36126 ft 480 kts 268°
2026-05-07 09:15 41.42875 75.73811 36127 ft 480 kts 268°
2026-05-07 09:15 41.42359 75.64954 36129 ft 479 kts 268°
2026-05-07 09:16 41.41835 75.56104 36143 ft 479 kts 268°
2026-05-07 09:16 41.41308 75.47303 36160 ft 480 kts 268°
2026-05-07 09:17 41.40772 75.38447 36158 ft 479 kts 267°
2026-05-07 09:17 41.40229 75.29620 36175 ft 478 kts 267°
2026-05-07 09:18 41.39680 75.20800 36176 ft 478 kts 267°
2026-05-07 09:18 41.39129 75.12038 36176 ft 478 kts 267°
2026-05-07 09:19 41.38568 75.03222 36169 ft 477 kts 266°
2026-05-07 09:19 41.38001 74.94427 36171 ft 476 kts 266°
2026-05-07 09:20 41.37427 74.85636 36169 ft 476 kts 266°
2026-05-07 09:20 41.36851 74.76853 36170 ft 476 kts 266°
2026-05-07 09:21 41.36266 74.68137 36167 ft 476 kts 266°
2026-05-07 09:21 41.35670 74.59353 36157 ft 476 kts 266°
2026-05-07 09:22 41.35070 74.50590 36162 ft 476 kts 266°
2026-05-07 09:22 41.34462 74.41812 36160 ft 476 kts 266°
2026-05-07 09:23 41.33850 74.33053 36154 ft 475 kts 266°
2026-05-07 09:23 41.33237 74.24367 36157 ft 474 kts 266°
2026-05-07 09:24 41.32613 74.15626 36151 ft 474 kts 265°
2026-05-07 09:24 41.31983 74.06901 36149 ft 474 kts 265°
2026-05-07 09:25 41.31349 73.98162 36148 ft 474 kts 266°
2026-05-07 09:25 41.30942 73.89502 36146 ft 471 kts 268°
2026-05-07 09:26 41.30641 73.80797 36146 ft 471 kts 268°
2026-05-07 09:26 41.30304 73.72100 36150 ft 471 kts 268°
2026-05-07 09:27 41.29928 73.63406 36135 ft 470 kts 268°
2026-05-07 09:28 41.29344 73.50428 36133 ft 471 kts 268°
2026-05-07 09:28 41.28943 73.41742 36135 ft 470 kts 268°
2026-05-07 09:29 41.28538 73.33058 36118 ft 471 kts 268°
2026-05-07 09:29 41.28126 73.24381 36115 ft 470 kts 268°
2026-05-07 09:30 41.27712 73.15769 36095 ft 470 kts 268°
2026-05-07 09:30 41.27289 73.07102 36102 ft 470 kts 268°
2026-05-07 09:31 41.26858 72.98435 36096 ft 470 kts 268°
2026-05-07 09:31 41.26420 72.89769 36081 ft 469 kts 268°
2026-05-07 09:32 41.26052 72.82584 36079 ft 468 kts 268°
2026-05-07 09:32 41.25532 72.72564 36066 ft 468 kts 268°
2026-05-07 09:33 41.25077 72.63923 36055 ft 468 kts 268°
2026-05-07 09:33 41.24696 72.56757 36046 ft 468 kts 268°
2026-05-07 09:34 41.24230 72.48156 36039 ft 466 kts 268°
2026-05-07 09:34 41.23759 72.39572 36034 ft 466 kts 268°
2026-05-07 09:35 41.23279 72.30976 36015 ft 466 kts 268°
2026-05-07 09:35 41.22801 72.22461 36007 ft 465 kts 267°
2026-05-07 09:36 41.22313 72.13921 36012 ft 463 kts 267°
2026-05-07 09:36 41.21825 72.05394 36005 ft 463 kts 267°
2026-05-07 09:37 41.21332 71.96880 35995 ft 463 kts 267°
2026-05-07 09:37 41.20834 71.88418 35982 ft 463 kts 267°
2026-05-07 09:38 41.20328 71.79922 35981 ft 462 kts 266°
2026-05-07 09:38 41.19817 71.71410 35971 ft 462 kts 266°
2026-05-07 09:39 41.19289 71.62899 35976 ft 462 kts 266°
2026-05-07 09:39 41.18761 71.54471 35964 ft 462 kts 266°
2026-05-07 09:40 41.18223 71.45954 35995 ft 463 kts 266°
2026-05-07 09:40 41.17678 71.37420 35998 ft 464 kts 266°
2026-05-07 09:41 41.17127 71.28886 36004 ft 464 kts 266°
2026-05-07 09:41 41.16570 71.20358 36025 ft 464 kts 266°
2026-05-07 09:42 41.16011 71.11891 36048 ft 464 kts 266°
2026-05-07 09:42 41.15442 71.03376 36048 ft 464 kts 266°
2026-05-07 09:43 41.14867 70.94853 36074 ft 464 kts 266°
2026-05-07 09:43 41.14287 70.86326 36077 ft 465 kts 265°
2026-05-07 09:44 41.13700 70.77814 36075 ft 467 kts 265°
2026-05-07 09:44 41.13400 70.73524 36197 ft 467 kts 265°
2026-05-07 09:44 41.13102 70.69244 36446 ft 467 kts 265°
2026-05-07 09:44 41.12804 70.64958 36740 ft 465 kts 265°
2026-05-07 09:45 41.12501 70.60690 36967 ft 466 kts 265°
2026-05-07 09:45 41.12193 70.56411 37216 ft 465 kts 265°
2026-05-07 09:45 41.11886 70.52158 37461 ft 464 kts 265°
2026-05-07 09:45 41.11577 70.47910 37746 ft 462 kts 265°
2026-05-07 09:46 41.11273 70.43724 37918 ft 462 kts 265°
2026-05-07 09:46 41.10964 70.39479 38125 ft 462 kts 265°
2026-05-07 09:46 41.10654 70.35246 38330 ft 462 kts 265°
2026-05-07 09:46 41.10343 70.31008 38496 ft 462 kts 265°
2026-05-07 09:47 41.10026 70.26779 38697 ft 461 kts 265°
2026-05-07 09:47 41.09500 70.22583 38850 ft 462 kts 259°
2026-05-07 09:47 41.08823 70.18427 38967 ft 461 kts 259°
2026-05-07 09:47 41.08107 70.14291 39160 ft 459 kts 258°
2026-05-07 09:48 41.07382 70.10223 39295 ft 459 kts 258°
2026-05-07 09:48 41.05894 70.02008 39492 ft 459 kts 258°
2026-05-07 09:49 41.04402 69.93768 39714 ft 459 kts 258°
2026-05-07 09:49 41.03660 69.89666 39824 ft 458 kts 258°
2026-05-07 09:49 41.02916 69.85557 39835 ft 460 kts 258°
2026-05-07 09:49 41.02172 69.81448 39984 ft 458 kts 258°
2026-05-07 09:50 41.01427 69.77342 40008 ft 460 kts 258°
2026-05-07 09:50 40.99926 69.69107 39993 ft 460 kts 258°
2026-05-07 09:51 40.98430 69.60932 39971 ft 460 kts 258°
2026-05-07 09:51 40.96919 69.52717 39949 ft 460 kts 258°
2026-05-07 09:52 40.95404 69.44510 39949 ft 459 kts 258°
2026-05-07 09:52 40.93883 69.36306 39943 ft 459 kts 258°
2026-05-07 09:53 40.92368 69.28170 39938 ft 459 kts 258°
2026-05-07 09:53 40.90837 69.19981 39929 ft 459 kts 258°
2026-05-07 09:54 40.89301 69.11803 39930 ft 459 kts 257°
2026-05-07 09:54 40.87759 69.03625 39929 ft 459 kts 257°
2026-05-07 09:55 40.86221 68.95503 39924 ft 459 kts 257°
2026-05-07 09:55 40.84668 68.87335 39935 ft 458 kts 257°
2026-05-07 09:56 40.83109 68.79174 39934 ft 458 kts 257°
2026-05-07 09:56 40.81546 68.71020 39934 ft 458 kts 257°
2026-05-07 09:57 40.80015 68.62861 39926 ft 458 kts 258°
2026-05-07 09:57 40.78601 68.54724 39926 ft 458 kts 258°
2026-05-07 09:58 40.76897 68.46639 39934 ft 458 kts 254°
2026-05-07 09:58 40.74964 68.38642 39933 ft 457 kts 254°
2026-05-07 09:59 40.73051 68.30638 39923 ft 457 kts 254°
2026-05-07 09:59 40.71267 68.22661 39923 ft 456 kts 259°
2026-05-07 10:00 40.70273 68.14430 39926 ft 455 kts 263°
2026-05-07 10:00 40.69476 68.06164 39922 ft 454 kts 264°
2026-05-07 10:01 40.68704 67.97916 39925 ft 454 kts 263°
2026-05-07 10:01 40.67915 67.89674 39922 ft 454 kts 263°
2026-05-07 10:02 40.67116 67.81479 39918 ft 454 kts 263°
2026-05-07 10:02 40.66303 67.73241 39917 ft 454 kts 263°
2026-05-07 10:03 40.65436 67.65011 39915 ft 454 kts 262°
2026-05-07 10:03 40.64397 67.56801 39915 ft 454 kts 261°
2026-05-07 10:04 40.63339 67.48607 39903 ft 454 kts 261°
2026-05-07 10:04 40.62310 67.40475 39911 ft 453 kts 261°
2026-05-07 10:05 40.61284 67.32291 39911 ft 453 kts 261°
2026-05-07 10:05 40.60253 67.24106 39923 ft 453 kts 261°
2026-05-07 10:06 40.59216 67.15919 39921 ft 453 kts 261°
2026-05-07 10:06 40.58180 67.07795 39922 ft 453 kts 261°
2026-05-07 10:07 40.57130 66.99614 39921 ft 453 kts 261°
2026-05-07 10:07 40.56076 66.91450 39925 ft 453 kts 261°
2026-05-07 10:08 40.54919 66.83286 39936 ft 453 kts 259°
2026-05-07 10:08 40.53617 66.75190 39930 ft 453 kts 259°
2026-05-07 10:09 40.52322 66.67135 39930 ft 453 kts 259°
2026-05-07 10:09 40.51040 66.59024 39941 ft 454 kts 259°
2026-05-07 10:10 40.49762 66.50900 39937 ft 454 kts 259°
2026-05-07 10:10 40.48480 66.42788 39939 ft 454 kts 259°
2026-05-07 10:11 40.47197 66.34715 39937 ft 454 kts 259°
2026-05-07 10:11 40.45901 66.26600 39938 ft 454 kts 258°
2026-05-07 10:12 40.44602 66.18503 39940 ft 450 kts 258°
2026-05-07 10:12 40.43322 66.10493 39936 ft 448 kts 258°
2026-05-07 10:13 40.42047 66.02548 39939 ft 447 kts 258°
2026-05-07 10:13 40.40761 65.94563 39925 ft 447 kts 258°
2026-05-07 10:14 40.39470 65.86595 39931 ft 446 kts 258°
2026-05-07 10:14 40.38173 65.78631 39924 ft 446 kts 258°
2026-05-07 10:15 40.36882 65.70736 39923 ft 446 kts 258°
2026-05-07 10:15 40.35579 65.62798 39918 ft 446 kts 258°
2026-05-07 10:16 40.34270 65.54856 39917 ft 446 kts 258°
2026-05-07 10:16 40.32961 65.46926 39910 ft 445 kts 258°
2026-05-07 10:17 40.31645 65.39016 39895 ft 445 kts 258°
2026-05-07 10:17 40.30320 65.31089 39911 ft 446 kts 258°
2026-05-07 10:18 40.28990 65.23158 39902 ft 446 kts 258°
2026-05-07 10:18 40.27665 65.15288 39909 ft 446 kts 258°
2026-05-07 10:19 40.26325 65.07370 39894 ft 446 kts 258°
2026-05-07 10:19 40.24979 64.99447 39905 ft 446 kts 258°
2026-05-07 10:20 40.23627 64.91528 39895 ft 446 kts 258°
2026-05-07 10:20 40.22279 64.83663 39886 ft 446 kts 257°
2026-05-07 10:21 40.20916 64.75747 39873 ft 446 kts 257°
2026-05-07 10:21 40.19547 64.67829 39863 ft 446 kts 257°
2026-05-07 10:22 40.18173 64.59918 39855 ft 446 kts 257°
2026-05-07 10:22 40.16795 64.52015 39856 ft 446 kts 257°
2026-05-07 10:23 40.15420 64.44168 39852 ft 446 kts 257°
2026-05-07 10:23 40.14028 64.36255 39847 ft 446 kts 257°
2026-05-07 10:24 40.12637 64.28378 39853 ft 445 kts 257°
2026-05-07 10:24 40.11242 64.20514 39841 ft 444 kts 257°
2026-05-07 10:25 40.09852 64.12716 39841 ft 444 kts 257°
2026-05-07 10:25 40.08447 64.04864 39842 ft 444 kts 257°
2026-05-07 10:26 40.07037 63.97015 39833 ft 443 kts 257°
2026-05-07 10:26 40.05627 63.89198 39833 ft 443 kts 257°
2026-05-07 10:27 40.04220 63.81431 39821 ft 442 kts 257°
2026-05-07 10:27 40.02799 63.73619 39822 ft 443 kts 257°
2026-05-07 10:28 40.01376 63.65809 39823 ft 442 kts 257°
2026-05-07 10:28 39.99950 63.58009 39819 ft 442 kts 256°
2026-05-07 10:29 39.98514 63.50207 39821 ft 442 kts 256°
2026-05-07 10:29 39.97083 63.42463 39815 ft 442 kts 256°
2026-05-07 10:30 39.94914 63.30767 39825 ft 442 kts 256°
2026-05-07 10:30 39.93462 63.22978 39829 ft 442 kts 256°
2026-05-07 10:31 39.92006 63.15196 39825 ft 442 kts 256°
2026-05-07 10:31 39.90555 63.07472 39828 ft 443 kts 256°
2026-05-07 10:32 39.89085 62.99680 39830 ft 443 kts 256°
2026-05-07 10:32 39.87611 62.91897 39829 ft 443 kts 256°
2026-05-07 10:33 39.86133 62.84121 39831 ft 443 kts 256°
2026-05-07 10:33 39.84613 62.76414 39832 ft 442 kts 252°
2026-05-07 10:34 39.82300 62.69006 39837 ft 443 kts 246°
2026-05-07 10:34 39.79710 62.61725 39836 ft 443 kts 245°
2026-05-07 10:35 39.77082 62.54492 39837 ft 443 kts 245°
2026-05-07 10:35 39.74469 62.47292 39834 ft 443 kts 245°
2026-05-07 10:36 39.71846 62.40052 39839 ft 443 kts 245°
2026-05-07 10:36 39.69224 62.32822 39838 ft 443 kts 245°
2026-05-07 10:37 39.66597 62.25592 39842 ft 443 kts 245°
2026-05-07 10:37 39.63985 62.18424 39838 ft 442 kts 245°
2026-05-07 10:38 39.61354 62.11223 39851 ft 442 kts 245°
2026-05-07 10:38 39.58720 62.04032 39853 ft 442 kts 245°
2026-05-07 10:39 39.56077 61.96833 39853 ft 442 kts 245°
2026-05-07 10:39 39.53430 61.89641 39856 ft 441 kts 245°
2026-05-07 10:40 39.50805 61.82528 39851 ft 440 kts 245°
2026-05-07 10:40 39.48167 61.75393 39858 ft 440 kts 245°
2026-05-07 10:41 39.45521 61.68256 39859 ft 440 kts 245°
2026-05-07 10:41 39.42872 61.61125 39861 ft 440 kts 245°
2026-05-07 10:42 39.40236 61.54050 39867 ft 440 kts 245°
2026-05-07 10:42 39.37580 61.46936 39867 ft 439 kts 245°
2026-05-07 10:43 39.34916 61.39819 39869 ft 440 kts 245°
2026-05-07 10:43 39.32255 61.32726 39872 ft 440 kts 245°
2026-05-07 10:44 39.29601 61.25669 39868 ft 439 kts 245°
2026-05-07 10:44 39.26926 61.18572 39874 ft 439 kts 245°
2026-05-07 10:45 39.24250 61.11489 39877 ft 439 kts 245°
2026-05-07 10:45 39.21566 61.04404 39884 ft 439 kts 245°
2026-05-07 10:46 39.18902 60.97386 39890 ft 439 kts 245°
2026-05-07 10:46 39.16224 60.90322 39890 ft 439 kts 246°
2026-05-07 10:47 39.13654 60.83205 39894 ft 438 kts 246°
2026-05-07 10:47 39.11109 60.76057 39891 ft 438 kts 246°
2026-05-07 10:48 39.08570 60.68993 39897 ft 437 kts 246°
2026-05-07 10:48 39.06002 60.61908 39905 ft 437 kts 246°
2026-05-07 10:49 39.03427 60.54832 39903 ft 437 kts 246°
2026-05-07 10:49 39.00846 60.47755 39916 ft 437 kts 246°
2026-05-07 10:50 38.98267 60.40698 39912 ft 436 kts 246°
2026-05-07 10:50 38.95700 60.33689 39925 ft 436 kts 246°
2026-05-07 10:51 38.93112 60.26641 39925 ft 436 kts 246°
2026-05-07 10:51 38.90521 60.19602 39924 ft 436 kts 246°
2026-05-07 10:52 38.87927 60.12570 39931 ft 435 kts 246°
2026-05-07 10:52 38.85355 60.05616 39931 ft 434 kts 246°
2026-05-07 10:53 38.82767 59.98633 39930 ft 434 kts 246°
2026-05-07 10:53 38.80172 59.91649 39937 ft 434 kts 246°
2026-05-07 10:54 38.77577 59.84677 39937 ft 433 kts 246°
2026-05-07 10:54 38.74999 59.77771 39940 ft 432 kts 246°
2026-05-07 10:55 38.72398 59.70820 39949 ft 432 kts 246°
2026-05-07 10:55 38.69797 59.63883 39948 ft 432 kts 246°
2026-05-07 10:56 38.67194 59.56955 39954 ft 432 kts 245°
2026-05-07 10:56 38.64605 59.50083 39951 ft 431 kts 245°
2026-05-07 10:57 38.62000 59.43184 39955 ft 431 kts 245°
2026-05-07 10:57 38.59248 59.36381 39962 ft 432 kts 239°
2026-05-07 10:58 38.55840 59.30048 39960 ft 433 kts 237°
2026-05-07 10:58 38.52312 59.23825 39955 ft 432 kts 237°
2026-05-07 10:59 38.48790 59.17669 39965 ft 432 kts 237°
2026-05-07 10:59 38.45252 59.11466 39966 ft 432 kts 237°
2026-05-07 11:00 38.41707 59.05258 39968 ft 432 kts 237°
2026-05-07 11:00 38.38193 58.99112 39977 ft 432 kts 237°
2026-05-07 11:01 38.34657 58.92938 39978 ft 431 kts 236°
2026-05-07 11:01 38.31120 58.86771 39971 ft 431 kts 236°
2026-05-07 11:02 38.27581 58.80614 39978 ft 431 kts 236°
2026-05-07 11:02 38.24036 58.74458 39974 ft 431 kts 236°
2026-05-07 11:03 38.20512 58.68351 39979 ft 431 kts 236°
2026-05-07 11:03 38.16961 58.62206 39988 ft 431 kts 236°
2026-05-07 11:04 38.13408 58.56071 40001 ft 431 kts 236°
2026-05-07 11:04 38.09849 58.49937 40010 ft 431 kts 236°
2026-05-07 11:05 38.06324 58.43873 40018 ft 430 kts 236°
2026-05-07 11:05 38.02470 58.38051 40021 ft 434 kts 227°
2026-05-07 11:06 37.97515 58.33593 40021 ft 444 kts 212°
2026-05-07 11:06 37.91599 58.31048 40020 ft 455 kts 200°
2026-05-07 11:07 37.85423 58.29342 40029 ft 458 kts 198°
2026-05-07 11:07 37.79191 58.27691 40053 ft 457 kts 201°
2026-05-07 11:08 37.73368 58.24795 40035 ft 446 kts 216°
2026-05-07 11:08 37.68603 58.20008 40049 ft 434 kts 231°
2026-05-07 11:09 37.65257 58.13810 40021 ft 426 kts 246°
2026-05-07 11:09 37.63507 58.06762 40019 ft 425 kts 261°
2026-05-07 11:10 37.62539 57.99417 40026 ft 425 kts 258°
2026-05-07 11:10 37.61247 57.92136 40027 ft 425 kts 257°
2026-05-07 11:11 37.59869 57.84886 40026 ft 425 kts 256°
2026-05-07 11:11 37.58465 57.77700 40021 ft 424 kts 256°
2026-05-07 11:12 37.57048 57.70483 40036 ft 425 kts 256°
2026-05-07 11:12 37.55630 57.63264 40055 ft 424 kts 256°
2026-05-07 11:13 37.54208 57.56042 40082 ft 423 kts 256°
2026-05-07 11:13 37.52788 57.48855 40103 ft 423 kts 256°
2026-05-07 11:14 37.51374 57.41724 40124 ft 423 kts 256°
2026-05-07 11:14 37.49943 57.34524 40127 ft 423 kts 256°
2026-05-07 11:15 37.48551 57.27336 40128 ft 422 kts 257°
2026-05-07 11:15 37.47267 57.20172 40129 ft 422 kts 257°
2026-05-07 11:16 37.45978 57.12966 40039 ft 422 kts 257°
2026-05-07 11:16 37.44670 57.05765 40041 ft 421 kts 257°
2026-05-07 11:17 37.43356 56.98613 40034 ft 419 kts 256°
2026-05-07 11:17 37.42044 56.91515 40035 ft 419 kts 256°
2026-05-07 11:18 37.40722 56.84374 40042 ft 420 kts 256°
2026-05-07 11:18 37.39402 56.77214 40035 ft 420 kts 256°
2026-05-07 11:19 37.38073 56.70062 40031 ft 420 kts 256°
2026-05-07 11:19 37.36734 56.62896 40031 ft 421 kts 256°
2026-05-07 11:20 37.35402 56.55788 40041 ft 421 kts 256°
2026-05-07 11:20 37.34059 56.48638 40046 ft 420 kts 256°
2026-05-07 11:21 37.32715 56.41503 40047 ft 420 kts 256°
2026-05-07 11:21 37.31366 56.34368 40047 ft 420 kts 256°
2026-05-07 11:22 37.30013 56.27236 40056 ft 419 kts 256°
2026-05-07 11:22 37.28669 56.20179 40049 ft 418 kts 256°
2026-05-07 11:23 37.27311 56.13071 40051 ft 418 kts 256°
2026-05-07 11:23 37.25952 56.05979 40061 ft 418 kts 256°
2026-05-07 11:24 37.24588 55.98891 40078 ft 418 kts 256°
2026-05-07 11:24 37.23219 55.91800 40086 ft 418 kts 256°
2026-05-07 11:25 37.21854 55.84754 40100 ft 418 kts 256°
2026-05-07 11:25 37.20476 55.77671 40107 ft 418 kts 256°
2026-05-07 11:26 37.19097 55.70599 40113 ft 417 kts 256°
2026-05-07 11:26 37.17713 55.63527 40123 ft 417 kts 256°
2026-05-07 11:27 37.16327 55.56470 40129 ft 417 kts 256°
2026-05-07 11:27 37.14946 55.49458 40133 ft 417 kts 256°
2026-05-07 11:28 37.13553 55.42401 40125 ft 417 kts 256°
2026-05-07 11:28 37.12154 55.35348 40155 ft 417 kts 255°
2026-05-07 11:29 37.10750 55.28301 40140 ft 417 kts 256°
2026-05-07 11:29 37.09343 55.21261 40145 ft 416 kts 255°
2026-05-07 11:30 37.07941 55.14282 40145 ft 416 kts 255°
2026-05-07 11:30 37.06537 55.07268 40150 ft 415 kts 255°
2026-05-07 11:31 37.05131 55.00254 40150 ft 415 kts 255°
2026-05-07 11:31 37.03720 54.93248 40148 ft 415 kts 255°
2026-05-07 11:32 37.01603 54.82796 40162 ft 415 kts 255°
2026-05-07 11:33 37.00188 54.75809 40152 ft 415 kts 255°
2026-05-07 11:33 36.98849 54.68793 40151 ft 415 kts 256°
2026-05-07 11:34 36.97543 54.61817 40155 ft 415 kts 256°
2026-05-07 11:34 36.96214 54.54799 40158 ft 415 kts 256°
2026-05-07 11:35 36.94872 54.47787 40160 ft 415 kts 255°
2026-05-07 11:35 36.93524 54.40775 40150 ft 415 kts 255°
2026-05-07 11:36 36.92124 54.33779 40146 ft 415 kts 253°
2026-05-07 11:36 36.90445 54.26932 40147 ft 415 kts 252°
2026-05-07 11:37 36.88700 54.20056 40118 ft 415 kts 252°
2026-05-07 11:37 36.86995 54.13181 40122 ft 415 kts 252°
2026-05-07 11:38 36.85311 54.06286 40120 ft 415 kts 252°
2026-05-07 11:38 36.83633 53.99406 40129 ft 415 kts 252°
2026-05-07 11:39 36.81998 53.92547 40126 ft 415 kts 253°
2026-05-07 11:39 36.80423 53.85619 40111 ft 415 kts 253°
2026-05-07 11:40 36.78846 53.78696 40120 ft 415 kts 253°
2026-05-07 11:40 36.77263 53.71819 40130 ft 415 kts 253°
2026-05-07 11:41 36.75651 53.64903 40141 ft 416 kts 253°
2026-05-07 11:41 36.74035 53.57994 40145 ft 416 kts 253°
2026-05-07 11:42 36.72413 53.51067 40143 ft 416 kts 253°
2026-05-07 11:42 36.70791 53.44157 40136 ft 416 kts 253°
2026-05-07 11:43 36.69175 53.37289 40130 ft 416 kts 253°
2026-05-07 11:43 36.67547 53.30394 40133 ft 416 kts 253°
2026-05-07 11:44 36.65911 53.23481 40143 ft 415 kts 252°
2026-05-07 11:44 36.63743 53.16835 40148 ft 415 kts 242°
2026-05-07 11:45 36.60854 53.10615 40149 ft 416 kts 240°
2026-05-07 11:45 36.57868 53.04512 40147 ft 416 kts 240°
2026-05-07 11:46 36.54848 52.98372 40146 ft 416 kts 240°
2026-05-07 11:46 36.51847 52.92249 40145 ft 415 kts 240°
2026-05-07 11:47 36.48845 52.86114 40158 ft 415 kts 240°
2026-05-07 11:47 36.45865 52.80032 40160 ft 415 kts 240°
2026-05-07 11:48 36.42864 52.73918 40159 ft 415 kts 240°
2026-05-07 11:48 36.39855 52.67801 40164 ft 415 kts 240°
2026-05-07 11:49 36.36845 52.61685 40167 ft 415 kts 240°
2026-05-07 11:49 36.33847 52.55624 40157 ft 415 kts 240°
2026-05-07 11:50 36.30823 52.49522 40162 ft 417 kts 240°
2026-05-07 11:50 36.27771 52.43374 40163 ft 420 kts 240°
2026-05-07 11:51 36.24712 52.37218 40166 ft 420 kts 240°
2026-05-07 11:51 36.21667 52.31099 40169 ft 420 kts 240°
2026-05-07 11:52 36.18604 52.24952 40166 ft 418 kts 240°
2026-05-07 11:52 36.15558 52.18873 40096 ft 412 kts 240°
2026-05-07 11:53 36.12550 52.12892 40176 ft 408 kts 240°
2026-05-07 11:53 36.09550 52.06876 40158 ft 413 kts 240°
2026-05-07 11:54 36.06528 52.00848 40159 ft 416 kts 240°
2026-05-07 11:54 36.03470 51.94781 40147 ft 415 kts 240°
2026-05-07 11:55 36.00426 51.88741 40139 ft 413 kts 240°
2026-05-07 11:55 35.97384 51.82717 40137 ft 414 kts 240°
2026-05-07 11:56 35.94319 51.76662 40131 ft 416 kts 239°
2026-05-07 11:56 35.91284 51.70663 40125 ft 413 kts 239°
2026-05-07 11:57 35.88236 51.64663 40117 ft 413 kts 239°
2026-05-07 11:57 35.85182 51.58659 40099 ft 415 kts 239°
2026-05-07 11:58 35.82110 51.52635 40053 ft 415 kts 239°
2026-05-07 11:58 35.79068 51.46677 40033 ft 412 kts 239°
2026-05-07 11:59 35.76014 51.40705 40026 ft 412 kts 239°
2026-05-07 11:59 35.72962 51.34745 40020 ft 412 kts 239°
2026-05-07 12:00 35.70186 51.28616 40018 ft 409 kts 248°
2026-05-07 12:00 35.68545 51.21948 40024 ft 408 kts 255°
2026-05-07 12:01 35.67331 51.15180 40019 ft 408 kts 256°
2026-05-07 12:01 35.66162 51.08344 40022 ft 409 kts 256°
2026-05-07 12:02 35.64976 51.01507 40022 ft 409 kts 256°
2026-05-07 12:02 35.63771 50.94685 40009 ft 408 kts 256°
2026-05-07 12:03 35.62566 50.87910 40005 ft 409 kts 256°
2026-05-07 12:03 35.61345 50.81078 39992 ft 409 kts 256°
2026-05-07 12:04 35.60122 50.74245 39986 ft 410 kts 256°
2026-05-07 12:04 35.59102 50.68567 39981 ft 410 kts 256°
2026-05-07 12:05 35.57671 50.60625 39977 ft 409 kts 256°
2026-05-07 12:05 35.56440 50.53818 39976 ft 408 kts 256°
2026-05-07 12:06 35.55207 50.47025 39983 ft 408 kts 256°
2026-05-07 12:06 35.54178 50.41373 40007 ft 409 kts 256°
2026-05-07 12:07 35.52940 50.34588 39992 ft 406 kts 256°
2026-05-07 12:07 35.51704 50.27820 39996 ft 406 kts 256°
2026-05-07 12:08 35.50467 50.21065 39999 ft 406 kts 256°
2026-05-07 12:08 35.49236 50.14365 40015 ft 404 kts 255°
2026-05-07 12:09 35.47996 50.07645 40014 ft 403 kts 255°
2026-05-07 12:09 35.46755 50.00939 40029 ft 403 kts 255°
2026-05-07 12:10 35.45509 49.94238 40042 ft 403 kts 255°
2026-05-07 12:10 35.43669 49.87840 40057 ft 400 kts 243°
2026-05-07 12:11 35.40690 49.82074 40058 ft 401 kts 236°
2026-05-07 12:11 35.37381 49.76550 40069 ft 402 kts 235°
2026-05-07 12:12 35.34030 49.71063 40069 ft 404 kts 235°
2026-05-07 12:12 35.30659 49.65521 40072 ft 406 kts 235°
2026-05-07 12:13 35.27316 49.59995 40077 ft 407 kts 235°
2026-05-07 12:13 35.23945 49.54422 40076 ft 407 kts 235°
2026-05-07 12:14 35.20581 49.48872 40072 ft 407 kts 235°
2026-05-07 12:14 35.17210 49.43321 40071 ft 406 kts 235°
2026-05-07 12:15 35.13860 49.37815 40070 ft 407 kts 235°
2026-05-07 12:15 35.10485 49.32276 40067 ft 406 kts 235°
2026-05-07 12:16 35.07366 49.26554 40058 ft 402 kts 243°
2026-05-07 12:16 35.05245 49.20273 40067 ft 400 kts 249°
2026-05-07 12:17 35.03414 49.13837 40063 ft 402 kts 250°
2026-05-07 12:17 35.01631 49.07420 40075 ft 402 kts 250°
2026-05-07 12:18 34.99827 49.00990 40067 ft 400 kts 250°
2026-05-07 12:18 34.98014 48.94590 40069 ft 399 kts 249°
2026-05-07 12:19 34.96205 48.88238 40064 ft 399 kts 249°
2026-05-07 12:19 34.94382 48.81852 40074 ft 400 kts 249°
2026-05-07 12:20 34.92554 48.75460 40072 ft 399 kts 249°
2026-05-07 12:20 34.90727 48.69078 40098 ft 399 kts 249°
2026-05-07 12:21 34.88908 48.62741 40098 ft 399 kts 249°
2026-05-07 12:21 34.87016 48.56375 40101 ft 399 kts 246°
2026-05-07 12:22 34.84422 48.50402 40103 ft 399 kts 240°
2026-05-07 12:22 34.81583 48.44594 40099 ft 399 kts 239°
2026-05-07 12:23 34.78709 48.38831 40117 ft 404 kts 239°
2026-05-07 12:23 34.75791 48.32982 40116 ft 406 kts 239°
2026-05-07 12:24 34.72883 48.27107 40119 ft 405 kts 239°
2026-05-07 12:24 34.69975 48.21242 40127 ft 406 kts 239°
2026-05-07 12:25 34.67063 48.15387 40119 ft 403 kts 239°
2026-05-07 12:25 34.64215 48.09674 40118 ft 403 kts 239°
2026-05-07 12:26 34.61327 48.03886 40121 ft 403 kts 239°
2026-05-07 12:26 34.58424 47.98076 40125 ft 403 kts 239°
2026-05-07 12:27 34.55517 47.92269 40126 ft 403 kts 239°
2026-05-07 12:27 34.52612 47.86476 40121 ft 403 kts 239°
2026-05-07 12:28 34.49708 47.80697 40119 ft 403 kts 239°
2026-05-07 12:28 34.47096 47.74717 40122 ft 402 kts 247°
2026-05-07 12:29 34.45419 47.68247 40120 ft 403 kts 252°
2026-05-07 12:29 34.43959 47.61680 40127 ft 404 kts 252°
2026-05-07 12:30 34.42534 47.55147 40128 ft 404 kts 252°
2026-05-07 12:30 34.41082 47.48570 40130 ft 405 kts 252°
2026-05-07 12:31 34.39614 47.41987 40128 ft 404 kts 252°
2026-05-07 12:31 34.38142 47.35423 40130 ft 405 kts 252°
2026-05-07 12:32 34.36673 47.28889 40130 ft 406 kts 252°
2026-05-07 12:32 34.35185 47.22304 40129 ft 405 kts 252°
2026-05-07 12:33 34.31554 47.13180 40131 ft 402 kts 235°
2026-05-07 12:33 34.28205 47.07768 40129 ft 402 kts 233°
2026-05-07 12:34 34.24780 47.02477 40129 ft 402 kts 233°
2026-05-07 12:34 34.21336 46.97160 40133 ft 402 kts 233°
2026-05-07 12:35 34.17905 46.91831 40132 ft 401 kts 233°
2026-05-07 12:35 34.14481 46.86506 40133 ft 402 kts 233°
2026-05-07 12:36 34.11044 46.81168 40140 ft 402 kts 233°
2026-05-07 12:36 34.07615 46.75849 40141 ft 401 kts 233°
2026-05-07 12:37 34.04210 46.70577 40146 ft 401 kts 233°
2026-05-07 12:37 34.00777 46.65268 40155 ft 401 kts 233°
2026-05-07 12:38 33.97345 46.59968 40158 ft 402 kts 233°
2026-05-07 12:38 33.93923 46.54692 40156 ft 402 kts 233°
2026-05-07 12:39 33.90478 46.49394 40133 ft 401 kts 233°
2026-05-07 12:39 33.87038 46.44107 40168 ft 401 kts 233°
2026-05-07 12:40 33.83609 46.38841 40162 ft 400 kts 233°
2026-05-07 12:40 33.80175 46.33576 40164 ft 400 kts 233°
2026-05-07 12:41 33.76765 46.28358 40159 ft 399 kts 233°
2026-05-07 12:41 33.73335 46.23118 40168 ft 400 kts 233°
2026-05-07 12:42 33.69892 46.17863 40167 ft 400 kts 232°
2026-05-07 12:42 33.66454 46.12624 40159 ft 400 kts 232°
2026-05-07 12:43 33.63007 46.07381 40144 ft 399 kts 232°
2026-05-07 12:43 33.59589 46.02187 40135 ft 399 kts 232°
2026-05-07 12:44 33.56151 45.96971 40111 ft 399 kts 232°
2026-05-07 12:44 33.52949 45.91552 40105 ft 399 kts 240°
2026-05-07 12:45 33.50853 45.85391 40105 ft 403 kts 252°
2026-05-07 12:45 33.49794 45.78816 40097 ft 406 kts 256°
2026-05-07 12:46 33.48913 45.72130 40088 ft 407 kts 256°
2026-05-07 12:46 33.48036 45.65437 40083 ft 407 kts 256°
2026-05-07 12:47 33.47132 45.58744 40075 ft 407 kts 256°
2026-05-07 12:47 33.46219 45.52107 40070 ft 407 kts 256°
2026-05-07 12:48 33.45293 45.45416 40068 ft 407 kts 256°
2026-05-07 12:48 33.44364 45.38725 40065 ft 408 kts 256°
2026-05-07 12:49 33.43430 45.32018 40058 ft 409 kts 256°
2026-05-07 12:49 33.42496 45.25342 40055 ft 409 kts 256°
2026-05-07 12:50 33.41554 45.18626 40054 ft 409 kts 256°
2026-05-07 12:50 33.40608 45.11913 40044 ft 410 kts 256°
2026-05-07 12:51 33.39656 45.05188 40046 ft 410 kts 256°
2026-05-07 12:51 33.38706 44.98505 40036 ft 410 kts 256°
2026-05-07 12:52 33.37746 44.91780 40040 ft 411 kts 256°
2026-05-07 12:52 33.36781 44.85038 40039 ft 411 kts 255°
2026-05-07 12:53 33.35582 44.78391 40039 ft 407 kts 249°
2026-05-07 12:53 33.33881 44.71932 40034 ft 407 kts 248°
2026-05-07 12:54 33.32520 44.65391 40026 ft 410 kts 254°
2026-05-07 12:54 33.31424 44.58705 40027 ft 411 kts 255°
2026-05-07 12:55 33.30371 44.51971 40019 ft 412 kts 255°
2026-05-07 12:55 33.29325 44.45282 39995 ft 412 kts 255°
2026-05-07 12:56 33.28261 44.38552 40024 ft 412 kts 255°
2026-05-07 12:56 33.27187 44.31810 40021 ft 413 kts 255°
2026-05-07 12:57 33.26326 44.24994 40022 ft 418 kts 261°
2026-05-07 12:57 33.26485 44.17992 40022 ft 424 kts 267°
2026-05-07 12:58 33.26916 44.10993 40020 ft 426 kts 268°
2026-05-07 12:58 33.27386 44.03929 40006 ft 426 kts 268°
2026-05-07 12:59 33.27836 43.96876 40013 ft 426 kts 268°
2026-05-07 12:59 33.28269 43.89809 40012 ft 427 kts 268°
2026-05-07 13:00 33.28693 43.82785 40038 ft 426 kts 268°
2026-05-07 13:00 33.29114 43.75707 40016 ft 428 kts 268°
2026-05-07 13:01 33.29534 43.68608 40014 ft 429 kts 268°
2026-05-07 13:01 33.29951 43.61503 40031 ft 429 kts 268°
2026-05-07 13:02 33.30366 43.54369 40003 ft 430 kts 268°
2026-05-07 13:02 33.30773 43.47300 40020 ft 430 kts 268°
2026-05-07 13:03 33.31179 43.40164 40023 ft 430 kts 268°
2026-05-07 13:03 33.31581 43.33025 40019 ft 431 kts 268°
2026-05-07 13:04 33.31980 43.25873 40018 ft 431 kts 268°
2026-05-07 13:04 33.32383 43.18766 40021 ft 432 kts 268°
2026-05-07 13:05 33.32824 43.11595 40018 ft 433 kts 268°
2026-05-07 13:05 33.33266 43.04418 39999 ft 433 kts 268°
2026-05-07 13:06 33.33699 42.97233 40018 ft 433 kts 268°
2026-05-07 13:06 33.34126 42.90030 40019 ft 434 kts 268°
2026-05-07 13:07 33.34546 42.82887 40018 ft 434 kts 268°
2026-05-07 13:07 33.34965 42.75681 40016 ft 434 kts 268°
2026-05-07 13:08 33.35315 42.68484 40018 ft 433 kts 266°
2026-05-07 13:08 33.35547 42.61293 40040 ft 433 kts 266°
2026-05-07 13:09 33.35777 42.54137 40015 ft 434 kts 266°
2026-05-07 13:09 33.36025 42.46931 40021 ft 434 kts 266°
2026-05-07 13:10 33.36278 42.39726 40037 ft 434 kts 266°
2026-05-07 13:10 33.36528 42.32512 40016 ft 434 kts 266°
2026-05-07 13:11 33.36772 42.25336 40024 ft 434 kts 266°
2026-05-07 13:11 33.37013 42.18117 40030 ft 435 kts 266°
2026-05-07 13:12 33.37249 42.10896 40029 ft 436 kts 266°
2026-05-07 13:12 33.37481 42.03586 40031 ft 442 kts 266°
2026-05-07 13:13 33.37713 41.96191 40034 ft 447 kts 266°
2026-05-07 13:13 33.37943 41.88783 40026 ft 450 kts 266°
2026-05-07 13:14 33.38048 41.81304 40028 ft 447 kts 261°
2026-05-07 13:14 33.36863 41.74110 40032 ft 439 kts 247°
2026-05-07 13:15 33.34149 41.67630 40026 ft 436 kts 238°
2026-05-07 13:15 33.30965 41.61463 40018 ft 436 kts 237°
2026-05-07 13:16 33.27739 41.55372 40042 ft 437 kts 237°
2026-05-07 13:16 33.24506 41.49223 40024 ft 437 kts 237°
2026-05-07 13:17 33.21282 41.43056 40004 ft 437 kts 237°
2026-05-07 13:17 33.18067 41.36901 40020 ft 437 kts 237°
2026-05-07 13:18 33.14842 41.30738 40024 ft 438 kts 237°
2026-05-07 13:18 33.11650 41.24605 40022 ft 438 kts 239°
2026-05-07 13:19 33.09251 41.17916 40019 ft 442 kts 251°
2026-05-07 13:19 33.08437 41.10595 40030 ft 451 kts 264°
2026-05-07 13:20 33.08485 41.03106 40021 ft 453 kts 266°
2026-05-07 13:20 33.08650 40.95636 40021 ft 453 kts 266°
2026-05-07 13:21 33.08794 40.88130 40025 ft 453 kts 266°
2026-05-07 13:21 33.08907 40.80601 40015 ft 454 kts 266°
2026-05-07 13:22 33.09005 40.73083 40014 ft 454 kts 266°
2026-05-07 13:22 33.09098 40.65567 40021 ft 454 kts 266°
2026-05-07 13:23 33.09186 40.58098 40014 ft 454 kts 266°
2026-05-07 13:23 33.09272 40.50574 40020 ft 454 kts 266°
2026-05-07 13:24 33.09353 40.43054 40027 ft 454 kts 266°
2026-05-07 13:24 33.09430 40.35513 40013 ft 454 kts 266°
2026-05-07 13:25 33.09502 40.28038 40013 ft 454 kts 266°
2026-05-07 13:25 33.09569 40.20497 40021 ft 455 kts 266°
2026-05-07 13:26 33.09633 40.12943 40028 ft 455 kts 266°
2026-05-07 13:26 33.09692 40.05402 40015 ft 455 kts 266°
2026-05-07 13:27 33.09747 39.97838 40020 ft 456 kts 266°
2026-05-07 13:27 33.09798 39.90324 40020 ft 457 kts 266°
2026-05-07 13:28 33.09843 39.82740 40020 ft 457 kts 266°
2026-05-07 13:28 33.09879 39.75162 40026 ft 458 kts 266°
2026-05-07 13:29 33.09911 39.67603 40017 ft 459 kts 266°
2026-05-07 13:29 33.09941 39.60000 40017 ft 458 kts 266°
2026-05-07 13:30 33.09966 39.52395 40026 ft 459 kts 266°
2026-05-07 13:30 33.09986 39.44770 40022 ft 460 kts 266°
2026-05-07 13:31 33.10002 39.37187 40015 ft 460 kts 266°
2026-05-07 13:31 33.10013 39.29547 40014 ft 461 kts 267°
2026-05-07 13:32 33.10019 39.21892 40015 ft 462 kts 267°
2026-05-07 13:32 33.10022 39.14231 40010 ft 462 kts 266°
2026-05-07 13:33 33.10019 39.06606 39960 ft 463 kts 267°
2026-05-07 13:33 33.10016 39.02775 39829 ft 463 kts 267°
2026-05-07 13:33 33.10012 38.98928 39696 ft 463 kts 267°
2026-05-07 13:34 33.09866 38.95103 39530 ft 461 kts 261°
2026-05-07 13:34 33.08448 38.87706 39095 ft 458 kts 252°
2026-05-07 13:34 33.07488 38.84083 38881 ft 459 kts 251°
2026-05-07 13:35 33.06498 38.80527 38643 ft 454 kts 250°
2026-05-07 13:35 33.05493 38.76986 38375 ft 450 kts 250°
2026-05-07 13:35 33.04488 38.73463 38077 ft 447 kts 250°
2026-05-07 13:35 33.03492 38.69957 37669 ft 447 kts 250°
2026-05-07 13:36 33.02498 38.66445 37257 ft 447 kts 251°
2026-05-07 13:36 33.01510 38.62926 36887 ft 449 kts 251°
2026-05-07 13:36 33.00517 38.59394 36510 ft 450 kts 251°
2026-05-07 13:36 32.99524 38.55863 36135 ft 451 kts 251°
2026-05-07 13:37 32.98525 38.52314 35752 ft 452 kts 251°
2026-05-07 13:37 32.97525 38.48767 35388 ft 452 kts 251°
2026-05-07 13:37 32.96526 38.45221 35024 ft 453 kts 252°
2026-05-07 13:37 32.95540 38.41716 34670 ft 453 kts 252°
2026-05-07 13:38 32.94535 38.38160 34322 ft 454 kts 252°
2026-05-07 13:38 32.93524 38.34596 33938 ft 455 kts 252°
2026-05-07 13:38 32.92509 38.31019 33567 ft 457 kts 252°
2026-05-07 13:38 32.91491 38.27438 33167 ft 458 kts 252°
2026-05-07 13:39 32.90470 38.23845 32721 ft 459 kts 252°
2026-05-07 13:39 32.89447 38.20251 32282 ft 460 kts 252°
2026-05-07 13:39 32.88418 38.16640 31877 ft 460 kts 252°
2026-05-07 13:39 32.87467 38.13305 31463 ft 460 kts 252°
2026-05-07 13:40 32.86437 38.09700 31035 ft 461 kts 252°
2026-05-07 13:40 32.85407 38.06094 30621 ft 462 kts 252°
2026-05-07 13:40 32.84443 38.02707 30235 ft 463 kts 252°
2026-05-07 13:40 32.83414 37.99068 29784 ft 465 kts 252°
2026-05-07 13:41 32.82386 37.95428 29310 ft 465 kts 252°
2026-05-07 13:41 32.81356 37.91784 28830 ft 463 kts 252°
2026-05-07 13:41 32.80332 37.88170 28376 ft 460 kts 252°
2026-05-07 13:41 32.79314 37.84582 27932 ft 457 kts 252°
2026-05-07 13:42 32.78300 37.81067 27497 ft 454 kts 252°
2026-05-07 13:42 32.77261 37.77529 27054 ft 452 kts 251°
2026-05-07 13:42 32.76223 37.74018 26699 ft 449 kts 251°
2026-05-07 13:42 32.75088 37.70571 26394 ft 448 kts 247°
2026-05-07 13:43 32.73621 37.67313 26104 ft 448 kts 239°
2026-05-07 13:43 32.71855 37.64252 25807 ft 448 kts 236°
2026-05-07 13:43 32.70010 37.61288 25516 ft 446 kts 235°
2026-05-07 13:43 32.68148 37.58404 25219 ft 445 kts 234°
2026-05-07 13:44 32.66252 37.55511 24944 ft 443 kts 234°
2026-05-07 13:44 32.64357 37.52630 24666 ft 442 kts 234°
2026-05-07 13:44 32.62472 37.49758 24389 ft 440 kts 234°
2026-05-07 13:44 32.60600 37.46894 24109 ft 439 kts 234°
2026-05-07 13:45 32.58728 37.44023 23835 ft 439 kts 234°
2026-05-07 13:45 32.56864 37.41159 23559 ft 438 kts 234°
2026-05-07 13:45 32.55008 37.38307 23227 ft 437 kts 234°
2026-05-07 13:45 32.53157 37.35462 22918 ft 435 kts 234°
2026-05-07 13:46 32.51337 37.32668 22610 ft 433 kts 234°
2026-05-07 13:46 32.49505 37.29858 22296 ft 430 kts 234°
2026-05-07 13:46 32.47677 37.27055 21985 ft 428 kts 234°
2026-05-07 13:46 32.45861 37.24274 21664 ft 426 kts 234°
2026-05-07 13:47 32.44059 37.21510 21369 ft 424 kts 234°
2026-05-07 13:47 32.42254 37.18745 21059 ft 423 kts 234°
2026-05-07 13:47 32.40461 37.16004 20763 ft 421 kts 234°
2026-05-07 13:47 32.38671 37.13269 20483 ft 419 kts 234°
2026-05-07 13:48 32.36888 37.10548 20193 ft 417 kts 233°
2026-05-07 13:48 32.35117 37.07846 19905 ft 415 kts 233°
2026-05-07 13:48 32.33376 37.05191 19621 ft 413 kts 233°
2026-05-07 13:48 32.31620 37.02514 19348 ft 412 kts 233°
2026-05-07 13:49 32.29867 36.99845 19057 ft 410 kts 233°
2026-05-07 13:49 32.28116 36.97180 18788 ft 410 kts 233°
2026-05-07 13:49 32.26370 36.94524 18518 ft 410 kts 233°
2026-05-07 13:49 32.24619 36.91863 18244 ft 409 kts 233°
2026-05-07 13:50 32.22873 36.89213 17929 ft 408 kts 233°
2026-05-07 13:50 32.21135 36.86575 17611 ft 406 kts 233°
2026-05-07 13:50 32.19407 36.83953 17305 ft 404 kts 233°
2026-05-07 13:50 32.17706 36.81370 16973 ft 402 kts 233°
2026-05-07 13:51 32.15994 36.78777 16678 ft 399 kts 233°
2026-05-07 13:51 32.14293 36.76205 16438 ft 397 kts 233°
2026-05-07 13:51 32.12593 36.73632 16231 ft 397 kts 233°
2026-05-07 13:51 32.10892 36.71064 15976 ft 397 kts 233°
2026-05-07 13:52 32.09195 36.68507 15738 ft 397 kts 233°
2026-05-07 13:52 32.07496 36.65946 15484 ft 395 kts 233°
2026-05-07 13:52 32.05808 36.63402 15258 ft 394 kts 233°
2026-05-07 13:52 32.04118 36.60868 15016 ft 392 kts 232°
2026-05-07 13:53 32.02392 36.58434 14779 ft 391 kts 230°
2026-05-07 13:53 32.00633 36.56008 14538 ft 389 kts 230°
2026-05-07 13:53 31.98881 36.53583 14308 ft 388 kts 230°
2026-05-07 13:53 31.97141 36.51166 14081 ft 386 kts 230°
2026-05-07 13:54 31.95409 36.48755 13843 ft 385 kts 230°
2026-05-07 13:54 31.93681 36.46347 13577 ft 384 kts 231°
2026-05-07 13:54 31.91956 36.43944 13342 ft 383 kts 230°
2026-05-07 13:54 31.90245 36.41558 13097 ft 382 kts 231°
2026-05-07 13:55 31.88711 36.39009 12817 ft 381 kts 242°
2026-05-07 13:55 31.87797 36.36108 12565 ft 380 kts 256°
2026-05-07 13:55 31.87287 36.33097 12364 ft 379 kts 259°
2026-05-07 13:55 31.86823 36.30052 12028 ft 378 kts 259°
2026-05-07 13:56 31.86355 36.27018 11656 ft 376 kts 259°
2026-05-07 13:56 31.85884 36.24001 11301 ft 372 kts 259°
2026-05-07 13:56 31.85421 36.21058 10934 ft 360 kts 259°
2026-05-07 13:56 31.84971 36.18214 10569 ft 349 kts 259°
2026-05-07 13:57 31.84535 36.15449 10217 ft 339 kts 258°
2026-05-07 13:57 31.84106 36.12761 9863 ft 329 kts 258°
2026-05-07 13:57 31.83699 36.10222 9475 ft 309 kts 258°
2026-05-07 13:57 31.83316 36.07824 9078 ft 289 kts 258°
2026-05-07 13:58 31.82953 36.05563 8753 ft 278 kts 258°
2026-05-07 13:58 31.82593 36.03330 8464 ft 277 kts 258°
2026-05-07 13:58 31.82238 36.01122 8165 ft 275 kts 258°
2026-05-07 13:58 31.81884 35.98911 7869 ft 276 kts 258°
2026-05-07 13:59 31.81528 35.96691 7583 ft 275 kts 258°
2026-05-07 13:59 31.81172 35.94497 7280 ft 273 kts 258°
2026-05-07 13:59 31.80817 35.92305 6998 ft 272 kts 258°
2026-05-07 13:59 31.80464 35.90128 6701 ft 271 kts 258°
2026-05-07 14:00 31.80115 35.87977 6422 ft 271 kts 259°
2026-05-07 14:00 31.79765 35.85806 6122 ft 270 kts 259°
2026-05-07 14:00 31.79415 35.83634 5821 ft 269 kts 259°
2026-05-07 14:00 31.79062 35.81475 5524 ft 269 kts 259°
2026-05-07 14:01 31.78710 35.79332 5223 ft 263 kts 260°
2026-05-07 14:01 31.78388 35.77360 4949 ft 258 kts 260°
2026-05-07 14:01 31.78055 35.75453 4662 ft 252 kts 258°
2026-05-07 14:01 31.77326 35.73630 4344 ft 251 kts 233°
2026-05-07 14:02 31.76042 35.72471 4083 ft 253 kts 204°
2026-05-07 14:02 31.74407 35.72179 3979 ft 249 kts 176°
2026-05-07 14:02 31.72725 35.72476 3970 ft 246 kts 172°
2026-05-07 14:02 31.70997 35.73060 3969 ft 264 kts 151°
2026-05-07 14:03 31.69776 35.74527 3965 ft 245 kts 114°
2026-05-07 14:03 31.69525 35.76377 3992 ft 226 kts 81°
2026-05-07 14:03 31.69873 35.78114 3981 ft 209 kts 69°
2026-05-07 14:03 31.70209 35.79659 3977 ft 188 kts 76°
2026-05-07 14:04 31.70400 35.81097 3950 ft 171 kts 80°
2026-05-07 14:04 31.70578 35.82475 3990 ft 172 kts 78°
2026-05-07 14:04 31.70781 35.83848 3982 ft 171 kts 77°
2026-05-07 14:04 31.70984 35.85231 3992 ft 171 kts 78°
2026-05-07 14:05 31.71078 35.85904 3991 ft 171 kts 77°
2026-05-07 14:05 31.71192 35.86696 4010 ft 172 kts 79°
2026-05-07 14:05 31.71393 35.88086 3915 ft 172 kts 78°
2026-05-07 14:05 31.71593 35.89467 3701 ft 172 kts 79°
2026-05-07 14:06 31.71791 35.90850 3473 ft 170 kts 76°
2026-05-07 14:06 31.71975 35.92120 3246 ft 165 kts 78°
2026-05-07 14:06 31.72153 35.93353 3041 ft 167 kts 78°
2026-05-07 14:06 31.72349 35.94713 2787 ft 168 kts 77°
2026-05-07 14:07 31.72543 35.96050 2616 ft 168 kts 80°
2026-05-07 14:07 31.72736 35.97404 2432 ft 167 kts 78°
2026-05-07 14:07 31.72923 35.98651 2425 ft 127 kts 80°
2026-05-07 14:07 31.72998 35.99327 2421 ft 43 kts 95°
2026-05-07 14:08 31.72986 35.99414 2424 ft 0 kts 103°
2026-05-07 14:08 31.72985 35.99418 2424 ft 2 kts 104°
2026-05-07 14:08 31.72966 35.99493 2420 ft 18 kts 111°
2026-05-07 14:08 31.72953 35.99530 2420 ft 2 kts 112°
2026-05-07 14:09 31.72951 35.99536 2420 ft 4 kts 112°
2026-05-07 14:09 31.72947 35.99547 2421 ft 0 kts 112°